ECMWFNIL_prec_precacc_003.txt.gz
Total_Precipitation_Accumulation
0.00 0.00 0.00 0.00 0.00 0.00 0.00 0.00 0.00 0.00 0.00 0.00 0.00 0.00 0.00 0.00 0.00 0.00 0.00 0.00 0.00 0.00 0.00 0.00 0.00 0.00 0.00 0.00 0.00 0.00 0.00 0.00 0.00 0.00 0.00 0.00 0.00 0.00 0.00 0.00 0.00 0.00
0.00 0.00 0.00 0.00 0.00 0.00 0.00 0.00 0.00 0.00 0.00 0.00 0.00 0.00 0.00 0.00 0.00 0.00 0.00 0.00 0.00 0.00 0.00 0.00 0.00 0.00 0.00 0.00 0.00 0.00 0.00 0.00 0.00 0.00 0.00 0.00 0.00 0.00 0.00 0.00 0.00 0.00
0.00 0.00 0.00 0.00 0.00 0.00 0.00 0.00 0.00 0.00 0.00 0.00 0.00 0.00 0.00 0.00 0.00 0.00 0.00 0.00 0.00 0.00 0.00 0.00 0.00 0.00 0.00 0.00 0.00 0.00 0.00 0.00 0.00 0.00 0.00 0.00 0.00 0.00 0.00 0.00 0.00 0.00
0.00 0.00 0.00 0.00 0.00 0.00 0.00 0.00 0.00 0.00 0.00 0.00 0.00 0.00 0.00 0.00 0.00 0.00 0.00 0.00 0.00 0.00 0.00 0.00 0.00 0.00 0.00 0.00 0.00 0.00 0.00 0.00 0.00 0.00 0.00 0.00 0.02 0.02 0.00 0.00 0.00 0.00
0.00 0.00 0.00 0.00 0.00 0.00 0.00 0.00 0.00 0.00 0.00 0.00 0.00 0.00 0.00 0.00 0.00 0.00 0.00 0.00 0.00 0.00 0.00 0.00 0.00 0.00 0.00 0.00 0.00 0.00 0.00 0.00 0.00 0.00 0.00 0.00 0.00 0.00 0.00 0.00 0.00 0.00
0.00 0.00 0.00 0.00 0.00 0.00 0.00 0.00 0.00 0.00 0.00 0.00 0.00 0.00 0.00 0.00 0.00 0.00 0.00 0.00 0.00 0.00 0.00 0.00 0.00 0.00 0.00 0.00 0.00 0.00 0.00 0.00 0.00 0.00 0.00 0.00 0.00 0.00 0.00 0.00 0.00 0.00
0.00 0.00 0.00 0.00 0.00 0.00 0.00 0.00 0.00 0.00 0.00 0.00 0.00 0.00 0.00 0.00 0.00 0.00 0.00 0.00 0.00 0.00 0.00 0.00 0.00 0.00 0.00 0.00 0.00 0.00 0.00 0.00 0.00 0.00 0.00 0.00 0.00 0.00 0.00 0.00 0.00 0.00
0.00 0.00 0.00 0.00 0.00 0.00 0.00 0.00 0.00 0.00 0.00 0.00 0.00 0.00 0.00 0.00 0.00 0.00 0.00 0.00 0.00 0.00 0.00 0.00 0.00 0.00 0.00 0.00 0.00 0.00 0.00 0.00 0.00 0.00 0.00 0.00 0.00 0.00 0.00 0.00 0.01 0.00
0.00 0.00 0.00 0.00 0.00 0.00 0.00 0.00 0.00 0.00 0.00 0.00 0.00 0.00 0.00 0.00 0.00 0.00 0.00 0.00 0.00 0.00 0.00 0.00 0.00 0.00 0.00 0.00 0.00 0.00 0.00 0.00 0.00 0.00 0.00 0.00 0.00 0.00 0.00 0.00 0.00 0.00
0.00 0.00 0.00 0.00 0.00 0.00 0.00 0.00 0.00 0.00 0.00 0.00 0.00 0.00 0.00 0.00 0.00 0.00 0.00 0.00 0.00 0.00 0.00 0.00 0.00 0.00 0.00 0.00 0.00 0.00 0.00 0.00 0.00 0.00 0.00 0.00 0.00 0.00 0.00 0.00 0.00 0.00
0.00 0.00 0.01 0.01 0.01 0.00 0.00 0.00 0.00 0.00 0.00 0.00 0.00 0.00 0.00 0.00 0.00 0.00 0.00 0.00 0.00 0.00 0.00 0.00 0.00 0.00 0.00 0.00 0.00 0.00 0.00 0.00 0.00 0.00 0.00 0.00 0.00 0.00 0.00 0.00 0.00 0.00
0.00 0.00 0.00 0.01 0.00 0.00 0.00 0.00 0.00 0.00 0.00 0.00 0.00 0.00 0.00 0.00 0.00 0.00 0.00 0.00 0.00 0.00 0.00 0.00 0.00 0.00 0.00 0.00 0.00 0.00 0.00 0.00 0.00 0.00 0.00 0.00 0.00 0.00 0.00 0.00 0.00 0.00
0.00 0.00 0.04 0.00 0.00 0.00 0.00 0.00 0.00 0.00 0.00 0.00 0.00 0.00 0.00 0.00 0.00 0.00 0.00 0.00 0.00 0.00 0.00 0.00 0.00 0.00 0.00 0.00 0.00 0.00 0.00 0.00 0.00 0.00 0.00 0.00 0.00 0.00 0.00 0.00 0.00 0.00
0.00 0.03 0.00 0.00 0.00 0.00 0.00 0.00 0.00 0.00 0.00 0.00 0.00 0.00 0.00 0.00 0.00 0.00 0.00 0.00 0.00 0.00 0.00 0.00 0.00 0.00 0.00 0.00 0.00 0.00 0.00 0.00 0.00 0.00 0.00 0.00 0.00 0.00 0.00 0.00 0.00 0.00
0.00 0.00 0.00 0.00 0.00 0.00 0.00 0.00 0.00 0.00 0.00 0.00 0.00 0.00 0.00 0.00 0.00 0.00 0.00 0.00 0.00 0.00 0.00 0.00 0.00 0.00 0.00 0.00 0.00 0.00 0.00 0.00 0.00 0.00 0.00 0.00 0.00 0.00 0.00 0.00 0.00 0.00
0.01 0.05 0.03 0.00 0.00 0.00 0.00 0.00 0.00 0.00 0.00 0.00 0.00 0.00 0.00 0.00 0.00 0.00 0.00 0.00 0.00 0.00 0.00 0.00 0.00 0.00 0.00 0.00 0.00 0.00 0.00 0.00 0.00 0.00 0.00 0.00 0.00 0.00 0.00 0.00 0.00 0.00
0.01 0.02 0.09 0.02 0.00 0.00 0.00 0.00 0.00 0.00 0.00 0.00 0.00 0.00 0.00 0.00 0.00 0.00 0.00 0.00 0.00 0.00 0.00 0.00 0.00 0.00 0.00 0.00 0.00 0.00 0.00 0.00 0.00 0.00 0.00 0.00 0.00 0.00 0.00 0.00 0.00 0.00
0.01 0.10 0.03 0.01 0.03 0.01 0.01 0.00 0.00 0.00 0.00 0.00 0.00 0.00 0.00 0.00 0.00 0.00 0.00 0.00 0.00 0.00 0.00 0.00 0.00 0.00 0.00 0.00 0.00 0.00 0.00 0.00 0.00 0.00 0.00 0.00 0.00 0.00 0.00 0.00 0.00 0.00
0.31 0.41 0.25 0.27 0.07 0.03 0.02 0.00 0.00 0.00 0.00 0.00 0.00 0.00 0.00 0.00 0.00 0.00 0.00 0.00 0.00 0.00 0.00 0.00 0.00 0.01 0.01 0.00 0.00 0.00 0.00 0.00 0.00 0.00 0.00 0.00 0.00 0.00 0.00 0.00 0.00 0.00
0.71 0.39 0.16 0.11 0.04 0.02 0.00 0.00 0.00 0.00 0.00 0.00 0.00 0.00 0.00 0.00 0.00 0.00 0.00 0.00 0.00 0.00 0.00 0.00 0.02 0.02 0.00 0.00 0.00 0.00 0.00 0.00 0.00 0.00 0.00 0.00 0.00 0.00 0.00 0.00 0.00 0.00
0.10 0.02 0.11 0.10 0.09 0.04 0.01 0.01 0.01 0.00 0.00 0.00 0.00 0.00 0.00 0.00 0.00 0.00 0.00 0.00 0.00 0.01 0.08 0.14 0.02 0.00 0.00 0.00 0.00 0.00 0.00 0.00 0.00 0.00 0.00 0.00 0.00 0.00 0.00 0.00 0.00 0.00
0.23 0.10 0.15 0.24 0.12 0.11 0.05 0.04 0.03 0.01 0.00 0.00 0.00 0.00 0.00 0.00 0.00 0.00 0.00 0.00 0.01 0.01 0.02 0.01 0.00 0.00 0.00 0.00 0.00 0.00 0.00 0.00 0.00 0.00 0.00 0.00 0.00 0.00 0.00 0.00 0.00 0.00
0.43 0.36 0.45 0.18 0.27 0.24 0.14 0.09 0.05 0.00 0.00 0.00 0.00 0.00 0.00 0.00 0.00 0.00 0.00 0.00 0.00 0.00 0.00 0.02 0.01 0.00 0.00 0.00 0.00 0.00 0.00 0.00 0.00 0.00 0.00 0.00 0.00 0.00 0.00 0.00 0.00 0.00
0.78 0.53 0.45 0.29 0.22 0.12 0.06 0.03 0.01 0.00 0.00 0.00 0.00 0.00 0.00 0.00 0.00 0.00 0.00 0.00 0.00 0.02 0.12 0.01 0.00 0.00 0.00 0.00 0.00 0.00 0.00 0.00 0.00 0.00 0.00 0.00 0.00 0.00 0.00 0.00 0.00 0.00
0.72 0.54 0.29 0.16 0.15 0.04 0.05 0.02 0.00 0.00 0.00 0.00 0.00 0.00 0.00 0.00 0.00 0.00 0.00 0.04 0.06 0.19 0.01 0.00 0.00 0.00 0.00 0.00 0.00 0.00 0.00 0.00 0.00 0.00 0.00 0.00 0.00 0.00 0.00 0.00 0.00 0.00
0.88 0.36 0.18 0.12 0.07 0.00 0.01 0.00 0.00 0.12 0.28 0.13 0.03 0.00 0.00 0.00 0.00 0.00 0.11 0.17 0.06 0.10 0.07 0.00 0.01 0.00 0.00 0.00 0.00 0.00 0.00 0.00 0.00 0.00 0.00 0.00 0.00 0.00 0.00 0.00 0.00 0.00

ECMWFNIL_prec_precacc_006.txt.gz
Total_Precipitation_Accumulation
0.00 0.00 0.00 0.00 0.00 0.00 0.00 0.00 0.00 0.00 0.00 0.00 0.00 0.00 0.00 0.00 0.00 0.00 0.00 0.00 0.00 0.00 0.00 0.00 0.00 0.00 0.00 0.00 0.00 0.00 0.00 0.00 0.00 0.00 0.00 0.00 0.00 0.00 0.00 0.00 0.00 0.00
0.00 0.00 0.00 0.00 0.00 0.00 0.00 0.00 0.00 0.00 0.00 0.00 0.00 0.00 0.00 0.00 0.00 0.00 0.00 0.00 0.00 0.00 0.00 0.00 0.00 0.00 0.00 0.00 0.00 0.00 0.00 0.00 0.00 0.00 0.00 0.00 0.00 0.00 0.00 0.00 0.00 0.00
0.00 0.00 0.00 0.00 0.00 0.00 0.00 0.00 0.00 0.00 0.00 0.00 0.00 0.00 0.00 0.00 0.00 0.00 0.00 0.00 0.00 0.00 0.00 0.00 0.00 0.00 0.00 0.00 0.00 0.00 0.00 0.00 0.00 0.00 0.00 0.00 0.00 0.00 0.00 0.00 0.00 0.00
0.00 0.00 0.00 0.00 0.00 0.00 0.00 0.00 0.00 0.00 0.00 0.00 0.00 0.00 0.00 0.00 0.00 0.00 0.00 0.00 0.00 0.00 0.00 0.00 0.00 0.00 0.00 0.00 0.00 0.00 0.00 0.00 0.00 0.00 0.00 0.00 0.02 0.02 0.00 0.00 0.00 0.00
0.00 0.00 0.00 0.00 0.00 0.00 0.00 0.00 0.00 0.00 0.00 0.00 0.00 0.00 0.00 0.00 0.00 0.00 0.00 0.00 0.00 0.00 0.00 0.00 0.00 0.00 0.00 0.00 0.00 0.00 0.00 0.00 0.00 0.00 0.00 0.00 0.00 0.00 0.00 0.00 0.00 0.00
0.00 0.00 0.00 0.00 0.00 0.00 0.00 0.00 0.00 0.00 0.00 0.00 0.00 0.00 0.00 0.00 0.00 0.00 0.00 0.00 0.00 0.00 0.00 0.00 0.00 0.00 0.00 0.00 0.00 0.00 0.00 0.00 0.00 0.00 0.00 0.00 0.00 0.00 0.00 0.00 0.00 0.00
0.00 0.00 0.00 0.00 0.00 0.00 0.00 0.00 0.00 0.00 0.00 0.00 0.00 0.00 0.00 0.00 0.00 0.00 0.00 0.00 0.00 0.00 0.00 0.00 0.00 0.00 0.00 0.00 0.00 0.00 0.00 0.00 0.00 0.00 0.00 0.00 0.00 0.00 0.00 0.00 0.00 0.00
0.00 0.00 0.00 0.00 0.00 0.00 0.00 0.00 0.00 0.00 0.00 0.00 0.00 0.00 0.00 0.00 0.00 0.00 0.00 0.00 0.00 0.00 0.00 0.00 0.00 0.00 0.00 0.00 0.00 0.00 0.00 0.00 0.00 0.00 0.00 0.00 0.00 0.00 0.00 0.00 0.01 0.00
0.00 0.00 0.00 0.00 0.00 0.00 0.00 0.00 0.00 0.00 0.00 0.00 0.00 0.00 0.00 0.00 0.00 0.00 0.00 0.00 0.00 0.00 0.00 0.00 0.00 0.00 0.00 0.00 0.00 0.00 0.00 0.00 0.00 0.00 0.00 0.00 0.00 0.00 0.00 0.00 0.00 0.00
0.00 0.00 0.00 0.00 0.00 0.00 0.00 0.01 0.00 0.00 0.00 0.00 0.00 0.00 0.00 0.00 0.00 0.00 0.00 0.00 0.00 0.00 0.00 0.00 0.00 0.00 0.00 0.00 0.00 0.00 0.00 0.00 0.00 0.00 0.00 0.00 0.00 0.00 0.00 0.00 0.00 0.00
0.00 0.00 0.01 0.01 0.01 0.00 0.01 0.00 0.00 0.00 0.00 0.00 0.00 0.00 0.00 0.00 0.00 0.00 0.00 0.00 0.00 0.00 0.00 0.00 0.00 0.00 0.00 0.00 0.00 0.00 0.00 0.00 0.00 0.00 0.00 0.00 0.00 0.00 0.00 0.00 0.00 0.00
0.00 0.00 0.00 0.01 0.00 0.00 0.00 0.00 0.00 0.00 0.00 0.00 0.00 0.00 0.00 0.00 0.00 0.00 0.00 0.00 0.00 0.00 0.00 0.00 0.00 0.00 0.00 0.00 0.00 0.00 0.00 0.00 0.00 0.00 0.00 0.00 0.00 0.00 0.00 0.00 0.00 0.00
0.00 0.00 0.04 0.03 0.04 0.01 0.01 0.07 0.00 0.00 0.00 0.00 0.00 0.00 0.00 0.00 0.00 0.00 0.00 0.00 0.00 0.00 0.00 0.00 0.00 0.00 0.00 0.00 0.00 0.00 0.00 0.00 0.00 0.00 0.00 0.00 0.00 0.00 0.00 0.00 0.00 0.00
0.00 0.06 0.06 0.16 0.08 0.12 0.02 0.00 0.00 0.00 0.00 0.00 0.00 0.00 0.00 0.00 0.00 0.00 0.00 0.00 0.00 0.00 0.00 0.00 0.00 0.00 0.00 0.00 0.00 0.00 0.00 0.00 0.00 0.00 0.00 0.00 0.00 0.00 0.00 0.00 0.00 0.00
0.00 0.03 0.23 0.26 0.12 0.05 0.03 0.04 0.02 0.00 0.00 0.00 0.00 0.00 0.00 0.00 0.00 0.00 0.00 0.00 0.00 0.00 0.00 0.00 0.00 0.00 0.00 0.00 0.00 0.00 0.00 0.00 0.00 0.00 0.00 0.00 0.00 0.00 0.00 0.00 0.00 0.00
0.11 0.31 0.29 0.62 0.22 0.03 0.16 0.14 0.03 0.02 0.00 0.01 0.01 0.00 0.00 0.00 0.00 0.00 0.00 0.00 0.00 0.00 0.00 0.00 0.00 0.00 0.00 0.00 0.00 0.00 0.00 0.00 0.00 0.00 0.00 0.00 0.00 0.00 0.00 0.00 0.00 0.00
0.19 0.54 0.47 0.64 0.25 0.17 0.04 0.10 0.07 0.02 0.02 0.01 0.01 0.00 0.00 0.00 0.00 0.00 0.00 0.00 0.00 0.00 0.00 0.00 0.00 0.00 0.00 0.00 0.00 0.00 0.00 0.00 0.00 0.00 0.00 0.00 0.00 0.00 0.00 0.00 0.00 0.00
0.08 0.76 0.61 0.34 0.21 0.33 0.19 0.06 0.09 0.04 0.04 0.03 0.01 0.00 0.00 0.00 0.00 0.00 0.00 0.00 0.00 0.00 0.00 0.00 0.00 0.00 0.00 0.00 0.00 0.00 0.00 0.00 0.00 0.00 0.00 0.00 0.00 0.00 0.00 0.00 0.00 0.00
0.89 0.91 0.56 0.31 0.31 0.41 0.19 0.19 0.13 0.18 0.17 0.11 0.02 0.00 0.00 0.00 0.00 0.00 0.00 0.00 0.00 0.00 0.00 0.00 0.00 0.01 0.01 0.00 0.00 0.00 0.00 0.00 0.00 0.00 0.00 0.00 0.00 0.00 0.00 0.00 0.00 0.00
0.73 0.47 0.23 0.40 0.97 0.70 0.34 0.19 0.05 0.06 0.08 0.05 0.00 0.00 0.00 0.00 0.00 0.00 0.00 0.00 0.00 0.00 0.00 0.00 0.02 0.02 0.00 0.00 0.00 0.00 0.00 0.00 0.00 0.00 0.00 0.00 0.00 0.01 0.00 0.00 0.00 0.00
0.11 0.04 0.31 1.35 0.96 0.89 0.51 0.39 0.22 0.27 0.18 0.13 0.05 0.03 0.01 0.00 0.00 0.00 0.00 0.00 0.00 0.01 0.08 0.14 0.02 0.00 0.00 0.00 0.00 0.00 0.00 0.00 0.00 0.01 0.00 0.00 0.02 0.01 0.00 0.00 0.00 0.00
0.27 0.55 0.95 1.15 1.11 0.73 0.51 0.36 0.20 0.24 0.34 0.16 0.11 0.08 0.05 0.04 0.03 0.01 0.00 0.00 0.01 0.01 0.02 0.01 0.00 0.00 0.00 0.01 0.00 0.00 0.00 0.01 0.00 0.00 0.02 0.00 0.01 0.00 0.00 0.00 0.00 0.00
0.70 0.84 0.85 0.85 1.07 0.57 0.43 0.34 0.50 0.44 0.35 0.28 0.21 0.14 0.10 0.06 0.03 0.00 0.00 0.00 0.00 0.00 0.00 0.04 0.05 0.01 0.01 0.00 0.00 0.00 0.00 0.00 0.00 0.00 0.00 0.00 0.00 0.00 0.00 0.00 0.00 0.00
0.90 0.78 0.69 0.64 0.56 0.47 0.43 0.42 0.47 0.47 0.42 0.24 0.18 0.12 0.08 0.04 0.01 0.00 0.00 0.00 0.00 0.02 0.12 0.02 0.01 0.00 0.00 0.00 0.00 0.01 0.00 0.00 0.00 0.00 0.00 0.00 0.00 0.00 0.00 0.00 0.00 0.00
0.87 0.76 0.51 0.52 0.70 0.75 0.64 0.53 0.60 0.40 0.20 0.11 0.08 0.05 0.03 0.02 0.01 0.01 0.02 0.04 0.06 0.19 0.01 0.00 0.00 0.01 0.02 0.03 0.01 0.00 0.00 0.00 0.00 0.00 0.00 0.00 0.00 0.00 0.00 0.00 0.00 0.00
0.98 0.57 0.60 0.51 0.63 0.73 0.75 0.51 0.34 0.35 0.38 0.28 0.13 0.08 0.03 0.03 0.02 0.01 0.12 0.17 0.06 0.10 0.08 0.07 0.08 0.06 0.01 0.00 0.00 0.00 0.00 0.00 0.00 0.00 0.00 0.00 0.00 0.00 0.00 0.00 0.00 0.00

ECMWFNIL_prec_precacc_009.txt.gz
Total_Precipitation_Accumulation
0.00 0.00 0.00 0.00 0.00 0.00 0.00 0.00 0.00 0.00 0.00 0.00 0.00 0.00 0.00 0.00 0.00 0.00 0.00 0.00 0.00 0.00 0.00 0.00 0.00 0.00 0.00 0.00 0.00 0.00 0.00 0.00 0.00 0.00 0.00 0.00 0.00 0.00 0.01 0.01 0.01 0.00
0.00 0.00 0.00 0.00 0.00 0.00 0.00 0.00 0.00 0.00 0.00 0.00 0.00 0.00 0.00 0.00 0.00 0.00 0.00 0.00 0.00 0.00 0.00 0.00 0.00 0.00 0.00 0.00 0.00 0.00 0.00 0.00 0.00 0.00 0.00 0.00 0.01 0.01 0.01 0.01 0.01 0.00
0.00 0.00 0.00 0.00 0.00 0.00 0.00 0.00 0.00 0.00 0.00 0.00 0.00 0.00 0.00 0.00 0.00 0.00 0.00 0.00 0.00 0.00 0.00 0.00 0.00 0.00 0.00 0.00 0.00 0.00 0.00 0.00 0.00 0.00 0.00 0.00 0.00 0.00 0.00 0.00 0.00 0.01
0.00 0.00 0.00 0.00 0.00 0.00 0.00 0.00 0.00 0.00 0.00 0.00 0.00 0.00 0.00 0.00 0.00 0.00 0.00 0.00 0.00 0.00 0.00 0.00 0.00 0.00 0.00 0.00 0.00 0.00 0.00 0.00 0.00 0.00 0.00 0.00 0.02 0.02 0.01 0.00 0.00 0.00
0.00 0.00 0.00 0.00 0.00 0.00 0.00 0.00 0.00 0.00 0.00 0.00 0.00 0.00 0.00 0.00 0.00 0.00 0.00 0.00 0.00 0.00 0.00 0.00 0.00 0.00 0.00 0.00 0.00 0.00 0.00 0.00 0.00 0.00 0.00 0.00 0.01 0.00 0.00 0.00 0.00 0.00
0.00 0.00 0.00 0.00 0.00 0.00 0.00 0.00 0.00 0.00 0.00 0.00 0.00 0.00 0.00 0.00 0.00 0.00 0.00 0.00 0.00 0.00 0.00 0.00 0.00 0.00 0.00 0.00 0.00 0.00 0.00 0.00 0.00 0.00 0.00 0.00 0.00 0.00 0.00 0.00 0.00 0.00
0.00 0.00 0.00 0.00 0.00 0.00 0.00 0.00 0.00 0.00 0.00 0.00 0.00 0.00 0.00 0.00 0.00 0.00 0.00 0.00 0.00 0.00 0.00 0.00 0.00 0.00 0.00 0.00 0.00 0.00 0.00 0.00 0.00 0.00 0.00 0.00 0.00 0.00 0.00 0.00 0.00 0.00
0.00 0.00 0.00 0.00 0.00 0.00 0.00 0.00 0.00 0.00 0.00 0.00 0.00 0.00 0.00 0.00 0.00 0.00 0.00 0.00 0.00 0.00 0.00 0.00 0.00 0.00 0.00 0.00 0.00 0.00 0.00 0.00 0.00 0.00 0.00 0.00 0.00 0.00 0.00 0.00 0.01 0.00
0.00 0.00 0.00 0.00 0.00 0.00 0.00 0.00 0.00 0.01 0.00 0.00 0.00 0.00 0.00 0.00 0.00 0.00 0.00 0.00 0.00 0.00 0.00 0.00 0.00 0.00 0.00 0.00 0.00 0.00 0.00 0.00 0.00 0.00 0.00 0.00 0.00 0.00 0.00 0.00 0.00 0.00
0.00 0.00 0.00 0.00 0.00 0.00 0.00 0.02 0.00 0.00 0.00 0.01 0.00 0.00 0.00 0.00 0.00 0.00 0.00 0.00 0.00 0.00 0.00 0.00 0.00 0.00 0.00 0.00 0.00 0.00 0.00 0.00 0.00 0.00 0.00 0.00 0.00 0.00 0.00 0.00 0.00 0.00
0.00 0.01 0.03 0.04 0.01 0.00 0.01 0.00 0.01 0.00 0.00 0.00 0.00 0.00 0.00 0.00 0.00 0.00 0.00 0.00 0.00 0.00 0.00 0.00 0.00 0.00 0.00 0.00 0.00 0.00 0.00 0.00 0.00 0.00 0.00 0.00 0.00 0.00 0.00 0.00 0.00 0.00
0.02 0.00 0.13 0.09 0.01 0.01 0.00 0.01 0.00 0.00 0.00 0.00 0.00 0.00 0.00 0.00 0.00 0.00 0.00 0.00 0.00 0.00 0.00 0.00 0.00 0.00 0.00 0.00 0.00 0.00 0.00 0.00 0.00 0.00 0.00 0.00 0.00 0.00 0.00 0.00 0.00 0.00
0.00 0.16 0.31 0.10 0.04 0.02 0.07 0.11 0.05 0.01 0.01 0.01 0.00 0.00 0.00 0.00 0.00 0.00 0.00 0.00 0.00 0.00 0.00 0.00 0.00 0.00 0.00 0.00 0.00 0.00 0.00 0.00 0.00 0.00 0.00 0.00 0.00 0.00 0.00 0.00 0.00 0.00
0.01 0.26 0.51 0.24 0.09 0.12 0.02 0.01 0.02 0.02 0.00 0.01 0.00 0.00 0.00 0.00 0.00 0.00 0.00 0.00 0.00 0.00 0.00 0.00 0.00 0.00 0.00 0.00 0.00 0.00 0.00 0.00 0.00 0.00 0.00 0.00 0.00 0.00 0.00 0.00 0.00 0.00
0.21 0.31 0.42 0.38 0.22 0.15 0.03 0.04 0.03 0.02 0.00 0.00 0.00 0.01 0.01 0.00 0.02 0.02 0.00 0.00 0.00 0.00 0.00 0.00 0.00 0.00 0.00 0.00 0.00 0.00 0.00 0.00 0.00 0.00 0.00 0.00 0.00 0.00 0.00 0.00 0.00 0.00
0.25 0.58 0.33 0.67 0.66 0.53 0.30 0.16 0.05 0.02 0.01 0.05 0.08 0.06 0.03 0.01 0.00 0.01 0.01 0.00 0.00 0.00 0.00 0.00 0.00 0.00 0.00 0.00 0.00 0.00 0.00 0.00 0.00 0.00 0.00 0.00 0.00 0.00 0.00 0.00 0.00 0.00
0.19 0.54 0.49 0.66 0.44 1.07 0.88 0.59 0.19 0.09 0.06 0.02 0.02 0.01 0.02 0.01 0.01 0.02 0.03 0.01 0.01 0.00 0.00 0.00 0.00 0.00 0.00 0.00 0.00 0.00 0.00 0.00 0.00 0.00 0.00 0.00 0.00 0.00 0.00 0.00 0.00 0.00
0.08 0.76 0.62 0.37 1.03 2.07 1.80 0.77 0.23 0.06 0.04 0.05 0.03 0.02 0.08 0.07 0.04 0.04 0.05 0.04 0.02 0.00 0.00 0.00 0.00 0.00 0.00 0.00 0.00 0.00 0.00 0.00 0.00 0.00 0.00 0.00 0.00 0.00 0.00 0.00 0.00 0.00
0.89 0.91 0.56 0.32 0.70 2.17 1.35 0.72 0.56 0.39 0.22 0.21 0.09 0.10 0.18 0.10 0.07 0.07 0.06 0.09 0.08 0.03 0.01 0.02 0.01 0.01 0.01 0.00 0.00 0.00 0.00 0.00 0.00 0.00 0.00 0.00 0.00 0.00 0.00 0.00 0.00 0.03
0.73 0.47 0.23 1.21 2.16 1.78 1.09 0.70 0.39 0.20 0.31 0.31 0.29 0.19 0.09 0.19 0.08 0.13 0.15 0.16 0.12 0.06 0.05 0.06 0.06 0.03 0.01 0.00 0.00 0.00 0.00 0.00 0.00 0.00 0.00 0.00 0.00 0.02 0.03 0.00 0.00 0.01
0.11 0.04 0.70 2.13 1.21 0.99 0.62 0.59 0.77 0.37 0.27 0.33 0.55 0.42 0.18 0.11 0.11 0.22 0.19 0.29 0.17 0.11 0.18 0.22 0.06 0.01 0.00 0.00 0.00 0.00 0.00 0.00 0.00 0.01 0.00 0.00 0.02 0.02 0.02 0.03 0.03 0.00
0.27 0.55 0.95 1.15 1.18 0.75 0.54 0.42 0.26 0.32 0.46 0.41 0.49 0.42 0.35 0.30 0.31 0.29 0.29 0.24 0.22 0.14 0.11 0.05 0.01 0.00 0.01 0.01 0.00 0.00 0.00 0.01 0.00 0.00 0.02 0.00 0.01 0.00 0.00 0.00 0.01 0.01
0.70 0.84 0.85 0.85 1.10 0.58 0.44 0.43 0.61 0.55 0.45 0.39 0.38 0.42 0.38 0.38 0.33 0.30 0.24 0.15 0.08 0.04 0.03 0.06 0.07 0.04 0.02 0.00 0.01 0.00 0.00 0.00 0.00 0.00 0.00 0.00 0.00 0.00 0.00 0.01 0.00 0.00
0.90 0.78 0.69 0.64 0.58 0.48 0.45 0.43 0.61 0.60 0.59 0.45 0.60 0.75 0.48 0.40 0.31 0.22 0.12 0.07 0.03 0.04 0.18 0.05 0.07 0.01 0.00 0.00 0.00 0.01 0.01 0.00 0.00 0.00 0.01 0.00 0.00 0.00 0.00 0.00 0.00 0.00
0.87 0.76 0.51 0.52 0.70 0.76 0.68 0.68 0.89 0.80 0.60 0.78 0.60 0.42 0.29 0.19 0.13 0.07 0.05 0.05 0.07 0.20 0.03 0.03 0.01 0.01 0.03 0.03 0.02 0.00 0.00 0.00 0.00 0.00 0.00 0.00 0.03 0.00 0.00 0.00 0.00 0.00
0.98 0.57 0.60 0.51 0.63 0.79 1.12 1.18 1.12 1.12 0.91 0.57 0.27 0.15 0.08 0.06 0.04 0.02 0.12 0.18 0.07 0.12 0.09 0.08 0.09 0.07 0.02 0.01 0.01 0.02 0.02 0.03 0.10 0.02 0.00 0.01 0.00 0.00 0.00 0.00 0.00 0.00

ECMWFNIL_prec_precacc_015.txt.gz
Total_Precipitation_Accumulation
0.00 0.00 0.00 0.00 0.00 0.00 0.00 0.00 0.00 0.00 0.00 0.00 0.00 0.00 0.00 0.00 0.00 0.00 0.00 0.00 0.00 0.00 0.00 0.00 0.00 0.00 0.00 0.00 0.00 0.00 0.00 0.00 0.00 0.00 0.00 0.00 0.01 0.00 0.01 0.01 0.01 0.00
0.00 0.00 0.00 0.00 0.00 0.00 0.00 0.00 0.00 0.00 0.00 0.00 0.00 0.00 0.01 0.00 0.00 0.00 0.00 0.00 0.00 0.00 0.00 0.00 0.00 0.00 0.00 0.00 0.00 0.00 0.00 0.00 0.00 0.00 0.00 0.00 0.01 0.01 0.01 0.01 0.02 0.01
0.00 0.00 0.00 0.00 0.00 0.00 0.00 0.00 0.00 0.00 0.00 0.01 0.00 0.00 0.00 0.00 0.00 0.00 0.00 0.00 0.00 0.00 0.00 0.00 0.00 0.00 0.00 0.00 0.00 0.00 0.00 0.00 0.00 0.00 0.00 0.00 0.01 0.00 0.00 0.00 0.00 0.01
0.00 0.00 0.00 0.00 0.00 0.00 0.00 0.00 0.00 0.00 0.00 0.00 0.00 0.00 0.00 0.00 0.00 0.00 0.00 0.00 0.00 0.00 0.00 0.00 0.00 0.00 0.00 0.00 0.00 0.00 0.00 0.00 0.00 0.00 0.00 0.00 0.02 0.02 0.01 0.00 0.00 0.00
0.00 0.00 0.00 0.00 0.00 0.00 0.00 0.00 0.00 0.00 0.00 0.00 0.00 0.00 0.00 0.00 0.00 0.00 0.00 0.00 0.00 0.00 0.00 0.00 0.00 0.00 0.00 0.00 0.00 0.00 0.00 0.00 0.00 0.00 0.00 0.00 0.01 0.00 0.00 0.00 0.00 0.00
0.00 0.00 0.00 0.00 0.00 0.00 0.00 0.00 0.00 0.00 0.00 0.00 0.00 0.00 0.00 0.00 0.00 0.00 0.00 0.00 0.00 0.00 0.00 0.00 0.00 0.00 0.00 0.00 0.00 0.00 0.00 0.00 0.00 0.00 0.00 0.00 0.00 0.00 0.00 0.00 0.00 0.00
0.00 0.00 0.00 0.00 0.00 0.00 0.00 0.00 0.00 0.00 0.00 0.00 0.00 0.00 0.00 0.00 0.00 0.00 0.00 0.00 0.01 0.00 0.00 0.00 0.00 0.00 0.00 0.00 0.00 0.00 0.00 0.00 0.00 0.00 0.00 0.00 0.00 0.00 0.00 0.00 0.00 0.00
0.00 0.00 0.00 0.00 0.00 0.00 0.00 0.00 0.00 0.01 0.00 0.00 0.00 0.00 0.00 0.00 0.00 0.00 0.00 0.00 0.00 0.00 0.01 0.03 0.00 0.00 0.00 0.01 0.01 0.00 0.00 0.00 0.00 0.00 0.00 0.00 0.00 0.00 0.00 0.00 0.01 0.00
0.00 0.00 0.01 0.00 0.00 0.00 0.00 0.01 0.01 0.02 0.00 0.00 0.00 0.00 0.01 0.00 0.00 0.00 0.00 0.00 0.00 0.03 0.01 0.00 0.01 0.01 0.00 0.00 0.00 0.00 0.00 0.00 0.00 0.00 0.00 0.00 0.00 0.00 0.00 0.00 0.00 0.00
0.00 0.00 0.00 0.00 0.00 0.00 0.00 0.02 0.01 0.00 0.00 0.02 0.01 0.00 0.02 0.00 0.00 0.00 0.00 0.00 0.00 0.01 0.00 0.00 0.00 0.00 0.00 0.00 0.00 0.00 0.00 0.00 0.00 0.00 0.00 0.00 0.00 0.00 0.00 0.00 0.00 0.00
0.00 0.01 0.03 0.04 0.01 0.00 0.01 0.03 0.03 0.00 0.01 0.03 0.01 0.03 0.01 0.01 0.00 0.02 0.01 0.02 0.03 0.01 0.00 0.00 0.00 0.00 0.00 0.00 0.00 0.00 0.00 0.00 0.00 0.00 0.00 0.00 0.00 0.00 0.00 0.00 0.00 0.00
0.02 0.00 0.13 0.09 0.03 0.03 0.09 0.03 0.01 0.01 0.01 0.03 0.01 0.01 0.00 0.01 0.00 0.00 0.00 0.00 0.00 0.00 0.00 0.02 0.00 0.00 0.00 0.00 0.00 0.00 0.00 0.00 0.00 0.00 0.00 0.00 0.00 0.00 0.00 0.00 0.00 0.00
0.00 0.16 0.31 0.10 0.06 0.06 0.15 0.15 0.09 0.02 0.02 0.02 0.01 0.02 0.01 0.01 0.00 0.00 0.00 0.00 0.00 0.00 0.01 0.00 0.00 0.00 0.00 0.00 0.00 0.00 0.00 0.00 0.01 0.00 0.00 0.00 0.00 0.00 0.00 0.00 0.01 0.01
0.01 0.26 0.51 0.24 0.09 0.24 0.15 0.14 0.09 0.03 0.00 0.02 0.02 0.01 0.01 0.01 0.01 0.01 0.01 0.01 0.00 0.00 0.00 0.00 0.00 0.00 0.01 0.01 0.00 0.00 0.00 0.00 0.00 0.00 0.00 0.00 0.00 0.00 0.02 0.02 0.02 0.01
0.21 0.31 0.42 0.38 0.83 1.10 0.79 0.35 0.06 0.04 0.01 0.01 0.01 0.02 0.04 0.03 0.04 0.03 0.00 0.00 0.02 0.04 0.01 0.01 0.02 0.02 0.01 0.03 0.01 0.00 0.00 0.00 0.00 0.00 0.00 0.01 0.02 0.03 0.03 0.03 0.02 0.01
0.25 0.58 0.33 0.67 0.74 1.95 1.58 0.80 0.09 0.03 0.02 0.06 0.09 0.08 0.05 0.02 0.01 0.01 0.01 0.01 0.01 0.02 0.03 0.03 0.03 0.02 0.10 0.06 0.01 0.02 0.02 0.01 0.02 0.02 0.03 0.05 0.05 0.04 0.03 0.02 0.01 0.01
0.19 0.54 0.49 0.66 0.82 2.03 1.38 1.08 0.34 0.12 0.07 0.03 0.03 0.02 0.03 0.02 0.02 0.02 0.04 0.04 0.04 0.05 0.04 0.04 0.02 0.02 0.02 0.02 0.02 0.03 0.06 0.08 0.05 0.05 0.06 0.05 0.03 0.05 0.03 0.03 0.02 0.01
0.08 0.77 0.62 0.38 1.20 2.82 2.55 0.84 0.24 0.06 0.04 0.05 0.04 0.03 0.08 0.08 0.04 0.05 0.05 0.06 0.06 0.05 0.05 0.12 0.13 0.05 0.04 0.06 0.07 0.12 0.05 0.04 0.06 0.05 0.03 0.03 0.04 0.04 0.04 0.02 0.02 0.01
0.90 0.92 0.56 0.32 0.72 2.26 1.39 0.73 0.56 0.39 0.22 0.21 0.09 0.10 0.21 0.10 0.08 0.08 0.07 0.10 0.13 0.15 0.18 0.13 0.08 0.11 0.09 0.11 0.09 0.06 0.04 0.05 0.03 0.05 0.03 0.05 0.04 0.03 0.02 0.03 0.02 0.08
0.73 0.48 0.23 1.21 2.16 1.78 1.11 0.71 0.39 0.20 0.31 0.31 0.30 0.19 0.10 0.20 0.08 0.14 0.16 0.18 0.21 0.16 0.15 0.18 0.19 0.16 0.12 0.08 0.04 0.04 0.03 0.02 0.02 0.02 0.01 0.02 0.02 0.03 0.03 0.01 0.05 0.10
0.11 0.04 0.70 2.13 1.21 0.99 0.62 0.60 0.77 0.37 0.28 0.34 0.55 0.42 0.19 0.11 0.13 0.22 0.20 0.33 0.27 0.20 0.29 0.37 0.19 0.09 0.04 0.04 0.05 0.05 0.04 0.02 0.07 0.12 0.02 0.02 0.04 0.05 0.04 0.08 0.10 0.10
0.27 0.55 0.95 1.15 1.18 0.75 0.54 0.42 0.27 0.35 0.47 0.42 0.50 0.46 0.38 0.31 0.44 0.30 0.32 0.31 0.31 0.24 0.19 0.11 0.08 0.08 0.14 0.08 0.02 0.01 0.01 0.04 0.02 0.02 0.06 0.04 0.03 0.02 0.07 0.18 0.21 0.28
0.70 0.84 0.86 0.85 1.10 0.58 0.44 0.43 0.61 0.57 0.46 0.40 0.38 0.52 0.87 0.61 0.37 0.38 0.36 0.25 0.18 0.13 0.08 0.08 0.09 0.08 0.05 0.01 0.03 0.02 0.02 0.02 0.03 0.03 0.09 0.06 0.08 0.08 0.29 0.20 0.12 0.10
0.90 0.78 0.69 0.64 0.58 0.48 0.45 0.44 0.62 0.61 0.61 0.47 0.69 1.22 0.63 0.50 0.62 0.33 0.18 0.12 0.22 0.09 0.19 0.06 0.11 0.04 0.01 0.00 0.01 0.04 0.03 0.10 0.07 0.08 0.12 0.15 0.21 0.25 0.29 0.28 0.13 0.14
0.87 0.76 0.51 0.52 0.71 0.76 0.68 0.69 0.94 0.88 0.69 0.86 0.67 0.47 0.35 0.36 0.28 0.21 0.18 0.27 0.30 0.30 0.08 0.09 0.11 0.03 0.04 0.05 0.04 0.02 0.05 0.15 0.13 0.11 0.14 0.12 0.38 0.33 0.14 0.16 0.37 0.10
0.98 0.57 0.60 0.51 0.64 0.79 1.12 1.19 1.13 1.13 0.92 0.58 0.28 0.15 0.08 0.06 0.04 0.03 0.15 0.22 0.11 0.16 0.12 0.09 0.10 0.09 0.05 0.04 0.11 0.06 0.07 0.22 0.16 0.21 0.14 0.20 0.34 0.23 0.15 0.27 0.31 0.42

ECMWFNIL_prec_precacc_021.txt.gz
Total_Precipitation_Accumulation
0.00 0.00 0.00 0.00 0.00 0.00 0.00 0.00 0.00 0.00 0.00 0.00 0.00 0.00 0.00 0.00 0.00 0.00 0.00 0.00 0.00 0.00 0.00 0.00 0.00 0.00 0.00 0.00 0.00 0.00 0.00 0.00 0.00 0.00 0.00 0.00 0.01 0.00 0.01 0.01 0.01 0.00
0.00 0.00 0.00 0.00 0.00 0.00 0.00 0.00 0.00 0.00 0.00 0.00 0.00 0.00 0.01 0.00 0.00 0.00 0.00 0.00 0.00 0.00 0.00 0.00 0.00 0.00 0.00 0.00 0.00 0.00 0.00 0.00 0.00 0.00 0.00 0.00 0.01 0.01 0.01 0.01 0.02 0.01
0.00 0.00 0.00 0.00 0.00 0.00 0.00 0.00 0.00 0.00 0.02 0.01 0.00 0.00 0.00 0.00 0.01 0.00 0.00 0.00 0.00 0.00 0.00 0.00 0.00 0.00 0.00 0.00 0.00 0.00 0.00 0.00 0.00 0.00 0.00 0.00 0.01 0.00 0.00 0.00 0.00 0.01
0.00 0.00 0.00 0.00 0.00 0.00 0.00 0.00 0.00 0.00 0.01 0.00 0.00 0.00 0.00 0.00 0.00 0.00 0.00 0.00 0.00 0.00 0.00 0.00 0.00 0.00 0.00 0.00 0.00 0.00 0.00 0.00 0.00 0.00 0.00 0.00 0.02 0.02 0.01 0.00 0.00 0.00
0.00 0.00 0.00 0.00 0.00 0.00 0.00 0.00 0.00 0.00 0.00 0.00 0.00 0.00 0.00 0.00 0.00 0.00 0.00 0.00 0.00 0.00 0.00 0.00 0.00 0.00 0.00 0.00 0.00 0.00 0.00 0.00 0.00 0.00 0.00 0.00 0.01 0.00 0.00 0.00 0.00 0.00
0.00 0.00 0.00 0.00 0.00 0.00 0.00 0.00 0.00 0.00 0.00 0.00 0.00 0.00 0.00 0.00 0.00 0.00 0.00 0.00 0.00 0.00 0.00 0.00 0.00 0.00 0.00 0.00 0.00 0.00 0.00 0.00 0.00 0.00 0.00 0.00 0.00 0.00 0.00 0.00 0.00 0.00
0.00 0.00 0.00 0.00 0.00 0.00 0.00 0.00 0.00 0.00 0.00 0.00 0.00 0.00 0.00 0.00 0.00 0.00 0.00 0.00 0.01 0.00 0.00 0.00 0.00 0.00 0.00 0.00 0.00 0.01 0.00 0.00 0.00 0.00 0.00 0.00 0.00 0.00 0.00 0.00 0.00 0.00
0.00 0.00 0.00 0.00 0.00 0.00 0.00 0.00 0.00 0.01 0.00 0.00 0.00 0.00 0.00 0.00 0.00 0.00 0.00 0.00 0.00 0.00 0.01 0.03 0.00 0.00 0.00 0.01 0.01 0.00 0.00 0.00 0.00 0.00 0.00 0.00 0.00 0.00 0.00 0.00 0.01 0.00
0.00 0.00 0.01 0.00 0.00 0.00 0.00 0.01 0.01 0.02 0.00 0.00 0.00 0.00 0.01 0.00 0.00 0.00 0.00 0.00 0.00 0.03 0.01 0.00 0.01 0.01 0.00 0.00 0.00 0.00 0.00 0.00 0.00 0.00 0.00 0.00 0.00 0.00 0.00 0.00 0.00 0.00
0.00 0.00 0.00 0.00 0.00 0.00 0.00 0.02 0.01 0.00 0.00 0.02 0.01 0.00 0.02 0.00 0.00 0.00 0.00 0.00 0.00 0.01 0.00 0.00 0.00 0.00 0.00 0.00 0.00 0.00 0.00 0.00 0.00 0.00 0.00 0.00 0.00 0.00 0.00 0.00 0.00 0.00
0.00 0.01 0.03 0.04 0.01 0.00 0.01 0.03 0.03 0.00 0.01 0.03 0.01 0.03 0.01 0.01 0.00 0.02 0.01 0.02 0.03 0.01 0.00 0.00 0.00 0.00 0.00 0.00 0.00 0.00 0.00 0.00 0.00 0.00 0.00 0.00 0.00 0.00 0.00 0.00 0.00 0.00
0.02 0.00 0.13 0.09 0.03 0.03 0.09 0.03 0.01 0.01 0.01 0.03 0.01 0.01 0.00 0.01 0.00 0.00 0.00 0.00 0.00 0.00 0.00 0.02 0.00 0.00 0.00 0.00 0.00 0.00 0.00 0.00 0.00 0.00 0.00 0.00 0.00 0.00 0.00 0.00 0.00 0.00
0.00 0.16 0.31 0.10 0.06 0.06 0.15 0.15 0.09 0.02 0.02 0.02 0.01 0.02 0.01 0.01 0.00 0.00 0.00 0.00 0.00 0.00 0.01 0.00 0.00 0.00 0.00 0.00 0.00 0.00 0.00 0.00 0.01 0.00 0.00 0.00 0.00 0.00 0.00 0.00 0.01 0.03
0.01 0.26 0.51 0.24 0.09 0.24 0.15 0.14 0.09 0.03 0.00 0.02 0.02 0.01 0.01 0.01 0.01 0.01 0.01 0.01 0.00 0.00 0.00 0.00 0.00 0.00 0.01 0.01 0.00 0.00 0.00 0.00 0.00 0.00 0.00 0.00 0.01 0.01 0.02 0.02 0.04 0.03
0.21 0.31 0.42 0.38 0.83 1.10 0.79 0.35 0.06 0.04 0.01 0.01 0.01 0.02 0.04 0.03 0.04 0.03 0.00 0.00 0.02 0.04 0.01 0.01 0.02 0.02 0.01 0.03 0.01 0.00 0.00 0.00 0.00 0.02 0.00 0.01 0.02 0.03 0.03 0.03 0.03 0.01
0.25 0.58 0.33 0.67 0.74 1.95 1.58 0.80 0.08 0.03 0.02 0.06 0.09 0.08 0.05 0.02 0.01 0.01 0.01 0.01 0.01 0.02 0.03 0.03 0.03 0.02 0.10 0.06 0.01 0.02 0.02 0.02 0.03 0.02 0.04 0.05 0.05 0.04 0.03 0.03 0.02 0.01
0.19 0.54 0.49 0.66 0.82 2.03 1.38 1.08 0.34 0.12 0.07 0.03 0.03 0.02 0.03 0.02 0.02 0.02 0.04 0.04 0.04 0.05 0.04 0.04 0.02 0.02 0.02 0.02 0.02 0.03 0.06 0.09 0.06 0.05 0.06 0.05 0.03 0.05 0.05 0.08 0.03 0.06
0.08 0.77 0.62 0.38 1.20 2.82 2.55 0.84 0.24 0.06 0.04 0.05 0.04 0.03 0.08 0.08 0.04 0.05 0.05 0.06 0.06 0.05 0.05 0.12 0.13 0.05 0.04 0.06 0.07 0.12 0.07 0.05 0.07 0.05 0.03 0.03 0.05 0.07 0.11 0.12 0.14 0.04
0.90 0.92 0.56 0.32 0.72 2.26 1.39 0.73 0.56 0.39 0.22 0.21 0.09 0.10 0.21 0.10 0.08 0.08 0.07 0.10 0.13 0.15 0.18 0.13 0.08 0.11 0.09 0.11 0.10 0.08 0.06 0.07 0.04 0.05 0.04 0.06 0.14 0.12 0.15 0.12 0.03 0.09
0.73 0.48 0.23 1.21 2.16 1.78 1.11 0.71 0.39 0.20 0.31 0.31 0.30 0.19 0.10 0.20 0.08 0.14 0.16 0.18 0.21 0.16 0.15 0.18 0.19 0.17 0.12 0.08 0.06 0.07 0.08 0.03 0.03 0.04 0.04 0.14 0.13 0.08 0.13 0.03 0.05 0.11
0.11 0.04 0.70 2.13 1.21 0.99 0.62 0.60 0.77 0.37 0.28 0.34 0.55 0.42 0.19 0.11 0.13 0.22 0.20 0.33 0.27 0.20 0.29 0.37 0.20 0.11 0.12 0.12 0.11 0.12 0.10 0.08 0.11 0.21 0.11 0.07 0.12 0.16 0.05 0.09 0.10 0.10
0.27 0.55 0.95 1.15 1.18 0.75 0.54 0.42 0.27 0.35 0.47 0.42 0.50 0.46 0.38 0.31 0.44 0.30 0.32 0.31 0.31 0.24 0.20 0.12 0.09 0.09 0.46 0.45 0.08 0.02 0.06 0.23 0.14 0.06 0.10 0.06 0.06 0.05 0.07 0.18 0.21 0.28
0.70 0.84 0.86 0.85 1.10 0.58 0.44 0.43 0.61 0.58 0.46 0.40 0.39 0.52 0.87 0.61 0.37 0.38 0.36 0.25 0.18 0.13 0.08 0.09 0.10 0.08 0.05 0.10 0.50 0.10 0.03 0.10 0.09 0.07 0.15 0.10 0.09 0.09 0.29 0.20 0.12 0.10
0.90 0.78 0.69 0.64 0.58 0.48 0.45 0.44 0.62 0.61 0.61 0.47 0.70 1.22 0.63 0.50 0.62 0.33 0.18 0.13 0.22 0.09 0.19 0.06 0.11 0.04 0.02 0.03 0.06 0.11 0.13 0.16 0.13 0.12 0.16 0.19 0.23 0.28 0.30 0.28 0.13 0.14
0.87 0.76 0.51 0.52 0.71 0.76 0.68 0.69 0.94 0.88 0.69 0.86 0.67 0.47 0.36 0.36 0.28 0.22 0.18 0.28 0.31 0.32 0.12 0.13 0.17 0.06 0.06 0.06 0.06 0.07 0.13 0.22 0.17 0.17 0.19 0.14 0.39 0.34 0.14 0.16 0.37 0.10
0.98 0.57 0.60 0.51 0.64 0.79 1.12 1.19 1.13 1.13 0.92 0.58 0.28 0.16 0.08 0.07 0.05 0.04 0.15 0.22 0.13 0.19 0.15 0.12 0.12 0.11 0.08 0.08 0.16 0.10 0.12 0.30 0.21 0.26 0.17 0.21 0.35 0.24 0.15 0.27 0.31 0.42

ECMWFNIL_prec_precacc_024.txt.gz
Total_Precipitation_Accumulation
0.00 0.00 0.00 0.00 0.00 0.00 0.00 0.00 0.00 0.00 0.00 0.00 0.00 0.00 0.00 0.00 0.00 0.00 0.00 0.00 0.00 0.00 0.00 0.00 0.00 0.00 0.00 0.00 0.00 0.00 0.00 0.00 0.00 0.00 0.00 0.00 0.01 0.01 0.01 0.01 0.01 0.00
0.00 0.00 0.00 0.00 0.00 0.00 0.00 0.00 0.00 0.00 0.00 0.00 0.00 0.00 0.01 0.00 0.00 0.00 0.00 0.00 0.00 0.00 0.00 0.00 0.00 0.00 0.00 0.00 0.00 0.00 0.00 0.00 0.00 0.00 0.00 0.00 0.01 0.01 0.01 0.01 0.02 0.01
0.00 0.00 0.00 0.00 0.00 0.00 0.00 0.00 0.00 0.00 0.02 0.01 0.00 0.00 0.00 0.00 0.01 0.00 0.00 0.00 0.00 0.00 0.00 0.00 0.00 0.00 0.00 0.00 0.00 0.00 0.00 0.00 0.00 0.00 0.00 0.00 0.01 0.00 0.00 0.00 0.00 0.01
0.00 0.00 0.00 0.00 0.00 0.00 0.00 0.00 0.00 0.00 0.01 0.00 0.00 0.00 0.00 0.00 0.00 0.00 0.00 0.00 0.00 0.00 0.00 0.00 0.00 0.00 0.00 0.00 0.00 0.00 0.00 0.00 0.00 0.00 0.00 0.00 0.02 0.02 0.01 0.00 0.00 0.00
0.00 0.00 0.00 0.00 0.00 0.00 0.00 0.00 0.00 0.00 0.00 0.00 0.00 0.00 0.00 0.00 0.00 0.00 0.00 0.00 0.00 0.00 0.00 0.00 0.00 0.00 0.00 0.00 0.00 0.00 0.00 0.00 0.00 0.00 0.00 0.00 0.01 0.00 0.00 0.00 0.00 0.00
0.00 0.00 0.00 0.00 0.00 0.00 0.00 0.00 0.00 0.00 0.00 0.00 0.00 0.00 0.00 0.00 0.00 0.00 0.00 0.00 0.00 0.00 0.00 0.00 0.00 0.00 0.00 0.00 0.00 0.00 0.00 0.00 0.00 0.00 0.00 0.00 0.00 0.00 0.00 0.00 0.00 0.00
0.00 0.00 0.00 0.00 0.00 0.00 0.00 0.00 0.00 0.00 0.00 0.00 0.00 0.00 0.00 0.00 0.00 0.00 0.00 0.00 0.01 0.00 0.00 0.00 0.00 0.00 0.00 0.00 0.00 0.01 0.00 0.00 0.00 0.00 0.00 0.00 0.00 0.00 0.00 0.00 0.00 0.00
0.00 0.00 0.00 0.00 0.00 0.00 0.00 0.00 0.00 0.01 0.00 0.00 0.00 0.00 0.00 0.00 0.00 0.00 0.00 0.00 0.00 0.00 0.01 0.03 0.00 0.00 0.00 0.01 0.01 0.00 0.00 0.00 0.00 0.00 0.00 0.00 0.00 0.00 0.00 0.00 0.01 0.00
0.00 0.00 0.01 0.00 0.00 0.00 0.00 0.01 0.01 0.02 0.00 0.00 0.00 0.00 0.01 0.00 0.00 0.00 0.00 0.00 0.00 0.02 0.01 0.00 0.01 0.01 0.00 0.00 0.00 0.00 0.00 0.00 0.00 0.00 0.00 0.00 0.00 0.00 0.00 0.00 0.00 0.00
0.00 0.00 0.00 0.00 0.00 0.00 0.00 0.02 0.01 0.00 0.00 0.02 0.01 0.00 0.02 0.00 0.00 0.00 0.00 0.00 0.00 0.01 0.00 0.00 0.00 0.00 0.00 0.00 0.00 0.00 0.00 0.00 0.00 0.00 0.00 0.00 0.00 0.00 0.00 0.00 0.00 0.00
0.00 0.01 0.03 0.04 0.01 0.00 0.01 0.03 0.03 0.00 0.01 0.03 0.01 0.03 0.01 0.01 0.00 0.02 0.01 0.02 0.03 0.01 0.00 0.00 0.00 0.00 0.01 0.00 0.00 0.00 0.00 0.00 0.00 0.00 0.00 0.00 0.00 0.00 0.00 0.00 0.00 0.00
0.02 0.00 0.13 0.09 0.03 0.03 0.09 0.03 0.01 0.01 0.01 0.03 0.01 0.01 0.00 0.01 0.00 0.00 0.00 0.00 0.00 0.00 0.00 0.02 0.00 0.00 0.00 0.00 0.00 0.00 0.00 0.00 0.00 0.00 0.00 0.00 0.00 0.00 0.00 0.00 0.00 0.00
0.00 0.16 0.31 0.10 0.06 0.06 0.15 0.15 0.09 0.02 0.02 0.02 0.01 0.02 0.01 0.01 0.00 0.00 0.00 0.00 0.00 0.00 0.01 0.00 0.00 0.00 0.00 0.00 0.00 0.00 0.00 0.00 0.01 0.00 0.00 0.00 0.00 0.00 0.00 0.00 0.01 0.03
0.01 0.26 0.51 0.24 0.09 0.24 0.15 0.14 0.09 0.03 0.00 0.02 0.02 0.01 0.01 0.01 0.01 0.01 0.01 0.01 0.00 0.00 0.00 0.00 0.00 0.00 0.01 0.01 0.00 0.00 0.00 0.00 0.00 0.00 0.00 0.00 0.01 0.01 0.02 0.02 0.04 0.03
0.21 0.31 0.42 0.38 0.83 1.10 0.79 0.35 0.06 0.04 0.01 0.01 0.01 0.02 0.04 0.03 0.04 0.03 0.00 0.00 0.02 0.04 0.01 0.01 0.02 0.02 0.01 0.03 0.01 0.00 0.00 0.00 0.00 0.03 0.00 0.01 0.02 0.03 0.03 0.03 0.03 0.01
0.25 0.58 0.33 0.67 0.74 1.95 1.58 0.80 0.09 0.03 0.02 0.06 0.09 0.08 0.05 0.02 0.01 0.01 0.01 0.01 0.01 0.02 0.02 0.03 0.03 0.02 0.10 0.06 0.01 0.02 0.02 0.02 0.03 0.03 0.04 0.05 0.05 0.05 0.03 0.03 0.02 0.01
0.19 0.54 0.49 0.66 0.82 2.03 1.38 1.08 0.34 0.12 0.07 0.03 0.03 0.02 0.03 0.02 0.02 0.02 0.04 0.04 0.04 0.05 0.04 0.04 0.02 0.02 0.02 0.02 0.02 0.03 0.06 0.10 0.06 0.05 0.06 0.05 0.04 0.06 0.06 0.09 0.03 0.08
0.08 0.77 0.62 0.38 1.20 2.82 2.55 0.84 0.24 0.06 0.04 0.05 0.04 0.03 0.08 0.08 0.04 0.05 0.05 0.06 0.06 0.05 0.05 0.12 0.13 0.05 0.04 0.06 0.07 0.12 0.07 0.05 0.07 0.05 0.04 0.03 0.06 0.07 0.11 0.12 0.15 0.05
0.90 0.92 0.56 0.32 0.72 2.26 1.39 0.73 0.56 0.39 0.22 0.21 0.09 0.10 0.21 0.10 0.08 0.08 0.07 0.10 0.13 0.15 0.18 0.13 0.08 0.11 0.09 0.11 0.10 0.08 0.06 0.07 0.04 0.05 0.04 0.06 0.14 0.12 0.15 0.25 0.11 0.11
0.73 0.48 0.23 1.21 2.16 1.78 1.11 0.71 0.39 0.20 0.31 0.31 0.30 0.19 0.10 0.20 0.08 0.14 0.16 0.18 0.21 0.16 0.15 0.18 0.19 0.17 0.12 0.08 0.06 0.07 0.08 0.03 0.06 0.05 0.04 0.14 0.14 0.09 0.14 0.09 0.07 0.11
0.11 0.04 0.70 2.13 1.21 0.99 0.62 0.60 0.77 0.37 0.28 0.34 0.55 0.42 0.19 0.11 0.13 0.22 0.20 0.33 0.27 0.20 0.29 0.37 0.20 0.11 0.12 0.12 0.11 0.12 0.10 0.08 0.11 0.21 0.11 0.07 0.12 0.16 0.05 0.10 0.11 0.11
0.27 0.55 0.95 1.15 1.18 0.75 0.54 0.42 0.27 0.35 0.47 0.42 0.50 0.46 0.38 0.31 0.44 0.30 0.32 0.31 0.31 0.24 0.20 0.12 0.09 0.09 0.46 0.45 0.08 0.02 0.06 0.24 0.15 0.07 0.11 0.06 0.06 0.08 0.10 0.21 0.24 0.28
0.70 0.84 0.86 0.85 1.10 0.58 0.44 0.43 0.61 0.57 0.46 0.40 0.39 0.52 0.87 0.61 0.37 0.38 0.36 0.25 0.18 0.13 0.08 0.09 0.10 0.08 0.05 0.11 0.50 0.10 0.04 0.11 0.10 0.08 0.16 0.11 0.09 0.10 0.32 0.24 0.16 0.10
0.90 0.78 0.69 0.64 0.58 0.48 0.45 0.44 0.62 0.61 0.61 0.47 0.70 1.22 0.63 0.50 0.62 0.33 0.18 0.13 0.22 0.09 0.19 0.06 0.11 0.04 0.02 0.03 0.06 0.12 0.13 0.16 0.13 0.13 0.17 0.22 0.25 0.35 0.34 0.31 0.16 0.15
0.87 0.76 0.51 0.52 0.71 0.76 0.68 0.69 0.94 0.88 0.69 0.86 0.67 0.47 0.36 0.36 0.28 0.22 0.18 0.28 0.31 0.32 0.12 0.13 0.17 0.07 0.06 0.06 0.06 0.07 0.13 0.22 0.17 0.18 0.20 0.20 0.42 0.36 0.18 0.18 0.38 0.11
0.98 0.57 0.60 0.51 0.64 0.79 1.12 1.19 1.13 1.13 0.92 0.58 0.28 0.16 0.08 0.07 0.05 0.04 0.15 0.22 0.13 0.19 0.15 0.12 0.12 0.11 0.08 0.08 0.16 0.10 0.12 0.30 0.21 0.27 0.20 0.24 0.36 0.26 0.17 0.28 0.32 0.43

ECMWFNIL_prec_precacc_027.txt.gz
Total_Precipitation_Accumulation
0.00 0.00 0.00 0.00 0.00 0.00 0.00 0.00 0.00 0.00 0.00 0.00 0.00 0.00 0.00 0.00 0.00 0.00 0.00 0.00 0.00 0.00 0.00 0.00 0.00 0.00 0.00 0.00 0.00 0.00 0.00 0.00 0.00 0.00 0.00 0.00 0.01 0.01 0.01 0.01 0.01 0.00
0.00 0.00 0.00 0.00 0.00 0.00 0.00 0.00 0.00 0.00 0.00 0.00 0.00 0.00 0.01 0.00 0.00 0.00 0.00 0.00 0.00 0.00 0.00 0.00 0.00 0.00 0.00 0.00 0.00 0.00 0.00 0.00 0.00 0.00 0.00 0.00 0.01 0.01 0.01 0.01 0.02 0.01
0.00 0.00 0.00 0.00 0.00 0.00 0.00 0.00 0.00 0.00 0.02 0.01 0.00 0.00 0.00 0.00 0.01 0.00 0.00 0.00 0.00 0.00 0.00 0.00 0.00 0.00 0.00 0.00 0.00 0.00 0.00 0.00 0.00 0.00 0.00 0.00 0.01 0.00 0.00 0.00 0.00 0.01
0.00 0.00 0.00 0.00 0.00 0.00 0.00 0.00 0.00 0.00 0.01 0.00 0.00 0.00 0.00 0.00 0.00 0.00 0.00 0.00 0.00 0.00 0.00 0.00 0.00 0.00 0.00 0.00 0.00 0.00 0.00 0.00 0.00 0.00 0.00 0.00 0.02 0.02 0.01 0.00 0.00 0.00
0.00 0.00 0.00 0.00 0.00 0.00 0.00 0.00 0.00 0.00 0.00 0.00 0.00 0.00 0.00 0.00 0.00 0.00 0.00 0.00 0.00 0.00 0.00 0.00 0.00 0.00 0.00 0.00 0.00 0.00 0.00 0.00 0.00 0.00 0.00 0.00 0.01 0.00 0.00 0.00 0.00 0.00
0.00 0.00 0.00 0.00 0.00 0.00 0.00 0.00 0.00 0.00 0.00 0.00 0.00 0.00 0.00 0.00 0.00 0.00 0.00 0.00 0.00 0.00 0.00 0.00 0.00 0.00 0.00 0.00 0.00 0.00 0.00 0.00 0.00 0.00 0.00 0.00 0.00 0.00 0.00 0.00 0.00 0.00
0.00 0.00 0.00 0.00 0.00 0.00 0.00 0.00 0.00 0.00 0.00 0.00 0.00 0.00 0.00 0.00 0.00 0.00 0.00 0.00 0.01 0.00 0.00 0.00 0.00 0.00 0.00 0.00 0.00 0.01 0.00 0.00 0.00 0.00 0.00 0.00 0.00 0.00 0.00 0.00 0.00 0.00
0.00 0.00 0.00 0.00 0.00 0.00 0.00 0.00 0.00 0.01 0.00 0.00 0.00 0.00 0.00 0.00 0.00 0.00 0.00 0.00 0.00 0.00 0.01 0.03 0.00 0.00 0.00 0.01 0.01 0.00 0.00 0.00 0.00 0.00 0.00 0.00 0.00 0.00 0.00 0.00 0.01 0.00
0.00 0.00 0.01 0.00 0.00 0.00 0.00 0.01 0.01 0.02 0.00 0.00 0.00 0.00 0.01 0.00 0.00 0.00 0.00 0.00 0.00 0.02 0.01 0.00 0.01 0.01 0.00 0.00 0.00 0.00 0.00 0.00 0.00 0.00 0.00 0.00 0.00 0.00 0.00 0.00 0.00 0.00
0.00 0.00 0.00 0.00 0.00 0.00 0.00 0.02 0.01 0.00 0.00 0.02 0.01 0.00 0.02 0.00 0.00 0.00 0.00 0.00 0.00 0.01 0.00 0.00 0.00 0.00 0.00 0.00 0.00 0.00 0.00 0.00 0.00 0.00 0.00 0.00 0.00 0.00 0.00 0.00 0.00 0.00
0.00 0.01 0.03 0.04 0.01 0.00 0.01 0.03 0.03 0.00 0.01 0.03 0.01 0.03 0.01 0.01 0.00 0.02 0.01 0.02 0.03 0.01 0.00 0.00 0.00 0.00 0.01 0.00 0.00 0.00 0.00 0.00 0.00 0.00 0.00 0.00 0.00 0.00 0.00 0.00 0.00 0.00
0.02 0.00 0.13 0.09 0.03 0.03 0.09 0.03 0.01 0.01 0.01 0.03 0.01 0.01 0.00 0.01 0.00 0.00 0.00 0.00 0.00 0.00 0.00 0.02 0.00 0.00 0.00 0.00 0.00 0.00 0.00 0.00 0.00 0.00 0.00 0.00 0.00 0.00 0.00 0.00 0.00 0.00
0.00 0.16 0.31 0.10 0.06 0.06 0.15 0.15 0.09 0.02 0.02 0.02 0.01 0.02 0.01 0.01 0.00 0.00 0.00 0.00 0.00 0.00 0.01 0.00 0.00 0.00 0.00 0.00 0.00 0.00 0.00 0.00 0.01 0.00 0.00 0.00 0.00 0.00 0.00 0.00 0.01 0.03
0.01 0.26 0.51 0.24 0.09 0.24 0.15 0.14 0.09 0.03 0.00 0.02 0.02 0.01 0.01 0.01 0.01 0.01 0.01 0.01 0.00 0.00 0.00 0.00 0.00 0.00 0.01 0.01 0.00 0.00 0.00 0.00 0.00 0.00 0.00 0.00 0.01 0.01 0.02 0.02 0.04 0.03
0.21 0.31 0.42 0.38 0.83 1.10 0.79 0.35 0.06 0.04 0.01 0.01 0.01 0.02 0.04 0.03 0.04 0.03 0.00 0.00 0.02 0.04 0.01 0.01 0.02 0.02 0.01 0.03 0.01 0.00 0.00 0.00 0.00 0.03 0.00 0.01 0.02 0.03 0.03 0.03 0.03 0.01
0.25 0.58 0.33 0.67 0.74 1.95 1.58 0.80 0.09 0.03 0.02 0.06 0.09 0.08 0.05 0.02 0.01 0.01 0.01 0.01 0.01 0.02 0.02 0.03 0.03 0.02 0.10 0.06 0.01 0.02 0.02 0.02 0.03 0.03 0.04 0.05 0.05 0.05 0.04 0.03 0.03 0.01
0.19 0.54 0.49 0.66 0.82 2.03 1.38 1.08 0.34 0.12 0.07 0.03 0.03 0.02 0.03 0.02 0.02 0.02 0.04 0.04 0.04 0.05 0.04 0.04 0.02 0.02 0.02 0.02 0.02 0.03 0.06 0.10 0.06 0.05 0.06 0.05 0.04 0.06 0.06 0.09 0.03 0.10
0.08 0.77 0.62 0.38 1.20 2.82 2.55 0.84 0.24 0.06 0.04 0.05 0.04 0.03 0.08 0.08 0.04 0.05 0.05 0.06 0.06 0.05 0.05 0.12 0.13 0.05 0.04 0.06 0.07 0.12 0.07 0.05 0.07 0.05 0.04 0.03 0.07 0.10 0.12 0.12 0.16 0.06
0.90 0.92 0.56 0.32 0.72 2.26 1.39 0.73 0.56 0.39 0.22 0.21 0.09 0.10 0.21 0.10 0.08 0.08 0.07 0.10 0.13 0.15 0.18 0.13 0.08 0.11 0.09 0.11 0.10 0.08 0.06 0.07 0.04 0.05 0.06 0.07 0.22 0.31 0.32 0.30 0.14 0.15
0.73 0.48 0.23 1.21 2.16 1.78 1.11 0.71 0.39 0.20 0.31 0.31 0.30 0.19 0.10 0.20 0.08 0.14 0.16 0.18 0.21 0.16 0.15 0.18 0.19 0.17 0.12 0.08 0.06 0.07 0.08 0.03 0.07 0.05 0.05 0.14 0.14 0.09 0.15 0.09 0.08 0.11
0.11 0.04 0.70 2.13 1.21 0.99 0.62 0.60 0.77 0.37 0.28 0.34 0.55 0.42 0.19 0.11 0.13 0.22 0.20 0.33 0.27 0.20 0.29 0.37 0.20 0.11 0.12 0.12 0.11 0.12 0.10 0.09 0.11 0.21 0.11 0.07 0.13 0.17 0.09 0.10 0.13 0.12
0.27 0.55 0.95 1.15 1.18 0.75 0.54 0.42 0.27 0.35 0.47 0.42 0.50 0.46 0.38 0.31 0.44 0.30 0.32 0.31 0.31 0.24 0.20 0.12 0.09 0.09 0.46 0.45 0.08 0.02 0.06 0.25 0.17 0.08 0.11 0.07 0.07 0.11 0.12 0.24 0.26 0.31
0.70 0.84 0.86 0.85 1.10 0.58 0.44 0.43 0.61 0.57 0.46 0.40 0.39 0.52 0.87 0.61 0.37 0.38 0.36 0.25 0.18 0.13 0.08 0.09 0.10 0.08 0.05 0.11 0.50 0.10 0.04 0.11 0.11 0.08 0.16 0.11 0.09 0.11 0.34 0.25 0.17 0.12
0.90 0.78 0.69 0.64 0.58 0.48 0.45 0.44 0.62 0.61 0.61 0.47 0.70 1.22 0.63 0.50 0.62 0.33 0.18 0.13 0.22 0.09 0.19 0.06 0.11 0.04 0.02 0.03 0.06 0.12 0.13 0.17 0.13 0.14 0.17 0.22 0.26 0.35 0.35 0.31 0.21 0.18
0.87 0.76 0.51 0.52 0.71 0.76 0.68 0.69 0.94 0.88 0.69 0.86 0.67 0.47 0.36 0.36 0.28 0.22 0.18 0.28 0.31 0.32 0.12 0.13 0.17 0.07 0.06 0.06 0.06 0.07 0.13 0.22 0.18 0.19 0.21 0.20 0.42 0.37 0.20 0.19 0.45 0.17
0.98 0.57 0.60 0.51 0.64 0.79 1.12 1.19 1.13 1.13 0.92 0.58 0.28 0.16 0.08 0.07 0.05 0.04 0.15 0.22 0.13 0.19 0.15 0.12 0.12 0.11 0.08 0.08 0.16 0.10 0.12 0.31 0.22 0.27 0.20 0.24 0.37 0.26 0.17 0.30 0.33 0.46

ECMWFNIL_prec_precacc_030.txt.gz
Total_Precipitation_Accumulation
0.00 0.00 0.00 0.00 0.00 0.00 0.00 0.00 0.00 0.00 0.00 0.00 0.00 0.00 0.00 0.00 0.00 0.00 0.00 0.00 0.00 0.00 0.00 0.00 0.00 0.00 0.00 0.00 0.00 0.00 0.00 0.00 0.00 0.00 0.00 0.00 0.01 0.01 0.01 0.01 0.01 0.00
0.00 0.00 0.00 0.00 0.00 0.00 0.00 0.00 0.00 0.00 0.00 0.00 0.00 0.00 0.01 0.00 0.00 0.00 0.00 0.00 0.00 0.00 0.00 0.00 0.00 0.00 0.00 0.00 0.00 0.00 0.00 0.00 0.00 0.00 0.00 0.00 0.01 0.01 0.01 0.01 0.02 0.01
0.00 0.00 0.00 0.00 0.00 0.00 0.00 0.00 0.00 0.00 0.02 0.01 0.00 0.00 0.00 0.00 0.01 0.00 0.00 0.00 0.00 0.00 0.00 0.00 0.00 0.00 0.00 0.00 0.00 0.00 0.00 0.00 0.00 0.00 0.00 0.00 0.01 0.00 0.00 0.00 0.00 0.01
0.00 0.00 0.00 0.00 0.00 0.00 0.00 0.00 0.00 0.00 0.01 0.00 0.00 0.00 0.00 0.00 0.00 0.00 0.00 0.00 0.00 0.00 0.00 0.00 0.00 0.00 0.00 0.00 0.00 0.00 0.00 0.00 0.00 0.00 0.00 0.00 0.02 0.02 0.01 0.00 0.00 0.00
0.00 0.00 0.00 0.00 0.00 0.00 0.00 0.00 0.00 0.00 0.00 0.00 0.00 0.00 0.00 0.00 0.00 0.00 0.00 0.00 0.00 0.00 0.00 0.00 0.00 0.00 0.00 0.00 0.00 0.00 0.00 0.00 0.00 0.00 0.00 0.00 0.01 0.00 0.00 0.00 0.00 0.00
0.00 0.00 0.00 0.00 0.00 0.00 0.00 0.00 0.00 0.00 0.00 0.00 0.00 0.00 0.00 0.00 0.00 0.00 0.00 0.00 0.00 0.00 0.00 0.00 0.00 0.00 0.00 0.00 0.00 0.00 0.00 0.00 0.00 0.00 0.00 0.00 0.00 0.00 0.00 0.00 0.00 0.00
0.00 0.00 0.00 0.00 0.00 0.00 0.00 0.00 0.00 0.00 0.00 0.00 0.00 0.00 0.00 0.00 0.00 0.00 0.00 0.00 0.01 0.00 0.00 0.00 0.00 0.00 0.00 0.00 0.00 0.01 0.00 0.00 0.00 0.00 0.00 0.00 0.00 0.00 0.00 0.00 0.00 0.00
0.00 0.00 0.00 0.00 0.00 0.00 0.00 0.00 0.00 0.01 0.00 0.00 0.00 0.00 0.00 0.00 0.00 0.00 0.00 0.00 0.00 0.00 0.01 0.03 0.00 0.00 0.00 0.01 0.01 0.00 0.00 0.00 0.00 0.00 0.00 0.00 0.00 0.00 0.00 0.00 0.01 0.00
0.00 0.00 0.01 0.00 0.00 0.00 0.00 0.01 0.01 0.02 0.00 0.00 0.00 0.00 0.01 0.00 0.00 0.00 0.00 0.00 0.00 0.02 0.01 0.00 0.01 0.01 0.00 0.00 0.00 0.00 0.00 0.00 0.00 0.00 0.00 0.00 0.00 0.00 0.00 0.00 0.00 0.00
0.00 0.00 0.00 0.00 0.00 0.00 0.00 0.02 0.01 0.00 0.00 0.02 0.01 0.00 0.02 0.00 0.00 0.00 0.00 0.00 0.00 0.01 0.00 0.00 0.00 0.00 0.00 0.00 0.00 0.00 0.00 0.00 0.00 0.00 0.00 0.00 0.00 0.00 0.00 0.00 0.00 0.00
0.00 0.01 0.03 0.04 0.01 0.00 0.01 0.03 0.03 0.00 0.01 0.03 0.01 0.03 0.01 0.01 0.00 0.02 0.01 0.02 0.03 0.01 0.00 0.00 0.00 0.00 0.01 0.00 0.00 0.00 0.00 0.00 0.00 0.00 0.00 0.00 0.00 0.00 0.00 0.00 0.00 0.00
0.02 0.00 0.13 0.09 0.03 0.03 0.09 0.03 0.01 0.01 0.01 0.03 0.01 0.01 0.00 0.01 0.00 0.00 0.00 0.00 0.00 0.00 0.00 0.02 0.00 0.00 0.00 0.00 0.00 0.00 0.00 0.00 0.00 0.00 0.00 0.00 0.00 0.00 0.00 0.00 0.00 0.00
0.00 0.16 0.31 0.10 0.06 0.06 0.15 0.15 0.09 0.02 0.02 0.02 0.01 0.02 0.01 0.01 0.00 0.00 0.00 0.00 0.00 0.00 0.01 0.00 0.00 0.00 0.00 0.00 0.00 0.00 0.00 0.00 0.01 0.00 0.00 0.00 0.00 0.00 0.00 0.00 0.01 0.03
0.01 0.26 0.51 0.24 0.09 0.24 0.15 0.14 0.09 0.03 0.00 0.02 0.02 0.01 0.01 0.01 0.01 0.01 0.01 0.01 0.00 0.00 0.00 0.00 0.00 0.00 0.01 0.01 0.00 0.00 0.00 0.00 0.00 0.00 0.00 0.00 0.01 0.01 0.02 0.02 0.04 0.03
0.21 0.31 0.42 0.38 0.83 1.10 0.79 0.35 0.06 0.04 0.01 0.01 0.01 0.02 0.04 0.03 0.04 0.03 0.00 0.00 0.02 0.04 0.01 0.01 0.02 0.02 0.01 0.03 0.01 0.00 0.00 0.00 0.00 0.03 0.00 0.01 0.02 0.03 0.03 0.03 0.03 0.01
0.25 0.58 0.33 0.67 0.74 1.95 1.58 0.80 0.09 0.03 0.02 0.06 0.09 0.08 0.05 0.02 0.01 0.01 0.01 0.01 0.01 0.02 0.02 0.03 0.03 0.02 0.10 0.06 0.01 0.02 0.02 0.02 0.03 0.03 0.04 0.05 0.05 0.05 0.04 0.03 0.03 0.01
0.19 0.54 0.49 0.66 0.82 2.03 1.38 1.08 0.34 0.12 0.07 0.03 0.03 0.02 0.03 0.02 0.02 0.02 0.04 0.04 0.04 0.05 0.04 0.04 0.02 0.02 0.02 0.02 0.02 0.03 0.06 0.10 0.06 0.05 0.06 0.05 0.04 0.06 0.06 0.09 0.03 0.10
0.08 0.77 0.62 0.38 1.20 2.82 2.55 0.84 0.24 0.06 0.04 0.05 0.04 0.03 0.08 0.08 0.04 0.05 0.05 0.06 0.06 0.05 0.05 0.12 0.13 0.05 0.04 0.06 0.07 0.12 0.07 0.05 0.07 0.05 0.04 0.03 0.07 0.10 0.12 0.14 0.26 0.08
0.90 0.92 0.56 0.32 0.72 2.26 1.39 0.73 0.56 0.39 0.22 0.21 0.09 0.10 0.21 0.10 0.08 0.08 0.07 0.10 0.13 0.15 0.18 0.13 0.08 0.11 0.09 0.11 0.10 0.08 0.06 0.07 0.04 0.05 0.06 0.07 0.22 0.31 0.32 0.35 0.30 0.17
0.73 0.48 0.23 1.21 2.16 1.78 1.11 0.71 0.39 0.20 0.31 0.31 0.30 0.19 0.10 0.20 0.08 0.14 0.16 0.18 0.21 0.16 0.15 0.18 0.19 0.17 0.12 0.08 0.06 0.07 0.08 0.03 0.07 0.05 0.05 0.14 0.14 0.09 0.15 0.12 0.11 0.51
0.11 0.04 0.70 2.13 1.21 0.99 0.62 0.60 0.77 0.37 0.28 0.34 0.55 0.42 0.19 0.11 0.13 0.22 0.20 0.33 0.27 0.20 0.29 0.37 0.20 0.11 0.12 0.12 0.11 0.12 0.10 0.09 0.11 0.21 0.11 0.07 0.13 0.17 0.09 0.11 0.21 0.27
0.27 0.55 0.95 1.15 1.18 0.75 0.54 0.42 0.27 0.35 0.47 0.42 0.50 0.46 0.38 0.31 0.44 0.30 0.32 0.31 0.31 0.24 0.20 0.12 0.09 0.09 0.46 0.45 0.08 0.02 0.06 0.25 0.17 0.08 0.11 0.07 0.07 0.11 0.12 0.25 0.28 0.33
0.70 0.84 0.86 0.85 1.10 0.58 0.44 0.43 0.61 0.57 0.46 0.40 0.39 0.52 0.87 0.61 0.37 0.38 0.36 0.25 0.18 0.13 0.08 0.09 0.10 0.08 0.05 0.11 0.50 0.10 0.04 0.11 0.11 0.08 0.16 0.11 0.09 0.11 0.34 0.26 0.17 0.14
0.90 0.78 0.69 0.64 0.58 0.48 0.45 0.44 0.62 0.61 0.61 0.47 0.70 1.22 0.63 0.50 0.62 0.33 0.18 0.13 0.22 0.09 0.19 0.06 0.11 0.04 0.02 0.03 0.06 0.12 0.13 0.17 0.14 0.14 0.17 0.22 0.26 0.35 0.35 0.31 0.21 0.18
0.87 0.76 0.51 0.52 0.71 0.76 0.68 0.69 0.94 0.88 0.69 0.86 0.67 0.47 0.36 0.36 0.28 0.22 0.18 0.28 0.31 0.32 0.12 0.13 0.17 0.07 0.06 0.06 0.06 0.07 0.13 0.22 0.18 0.19 0.21 0.20 0.43 0.37 0.20 0.19 0.46 0.17
0.98 0.57 0.60 0.51 0.64 0.79 1.12 1.19 1.13 1.13 0.92 0.58 0.28 0.16 0.08 0.07 0.05 0.04 0.15 0.22 0.13 0.19 0.15 0.12 0.12 0.11 0.08 0.08 0.16 0.10 0.12 0.31 0.22 0.28 0.20 0.24 0.37 0.26 0.18 0.30 0.33 0.46

ECMWFNIL_prec_precacc_033.txt.gz
Total_Precipitation_Accumulation
0.00 0.00 0.00 0.00 0.00 0.00 0.00 0.00 0.00 0.00 0.00 0.00 0.00 0.00 0.00 0.00 0.00 0.00 0.00 0.00 0.00 0.00 0.00 0.00 0.00 0.00 0.00 0.00 0.00 0.00 0.00 0.00 0.00 0.00 0.00 0.00 0.01 0.01 0.01 0.01 0.01 0.00
0.00 0.00 0.00 0.00 0.00 0.00 0.00 0.00 0.00 0.00 0.00 0.00 0.00 0.00 0.01 0.00 0.00 0.00 0.00 0.00 0.00 0.00 0.00 0.00 0.00 0.00 0.00 0.00 0.00 0.00 0.00 0.00 0.00 0.00 0.00 0.00 0.01 0.01 0.01 0.01 0.02 0.01
0.00 0.00 0.00 0.00 0.00 0.00 0.00 0.00 0.00 0.00 0.02 0.01 0.00 0.00 0.00 0.00 0.01 0.00 0.00 0.00 0.00 0.00 0.00 0.00 0.00 0.00 0.00 0.00 0.00 0.00 0.00 0.00 0.00 0.00 0.00 0.00 0.01 0.00 0.00 0.00 0.00 0.01
0.00 0.00 0.00 0.00 0.00 0.00 0.00 0.00 0.00 0.00 0.01 0.00 0.00 0.00 0.00 0.00 0.00 0.00 0.00 0.00 0.00 0.00 0.00 0.00 0.00 0.00 0.00 0.00 0.00 0.00 0.00 0.00 0.00 0.00 0.00 0.00 0.02 0.02 0.01 0.00 0.00 0.00
0.00 0.00 0.00 0.00 0.00 0.00 0.00 0.00 0.00 0.00 0.00 0.00 0.00 0.00 0.00 0.00 0.00 0.00 0.00 0.00 0.00 0.00 0.00 0.00 0.00 0.00 0.00 0.00 0.00 0.00 0.00 0.00 0.00 0.00 0.00 0.00 0.01 0.00 0.00 0.00 0.00 0.00
0.00 0.00 0.00 0.00 0.00 0.00 0.00 0.00 0.00 0.00 0.00 0.00 0.00 0.00 0.00 0.00 0.00 0.00 0.00 0.00 0.00 0.00 0.00 0.00 0.00 0.00 0.00 0.00 0.00 0.00 0.00 0.00 0.00 0.00 0.00 0.00 0.00 0.00 0.00 0.00 0.00 0.00
0.00 0.00 0.00 0.00 0.00 0.00 0.00 0.00 0.00 0.00 0.00 0.00 0.00 0.00 0.00 0.00 0.00 0.00 0.00 0.00 0.01 0.00 0.00 0.00 0.00 0.00 0.00 0.00 0.00 0.01 0.00 0.00 0.00 0.00 0.00 0.00 0.00 0.00 0.00 0.00 0.00 0.00
0.00 0.00 0.00 0.00 0.00 0.00 0.00 0.00 0.00 0.01 0.00 0.00 0.00 0.00 0.00 0.00 0.00 0.00 0.00 0.00 0.00 0.00 0.01 0.03 0.00 0.00 0.00 0.01 0.01 0.00 0.00 0.00 0.00 0.00 0.00 0.00 0.00 0.00 0.00 0.00 0.01 0.00
0.00 0.00 0.01 0.00 0.00 0.00 0.00 0.01 0.01 0.02 0.00 0.00 0.00 0.00 0.01 0.00 0.00 0.00 0.00 0.00 0.00 0.02 0.01 0.00 0.01 0.01 0.00 0.00 0.00 0.00 0.00 0.00 0.00 0.00 0.00 0.00 0.00 0.00 0.00 0.00 0.00 0.00
0.00 0.00 0.00 0.00 0.00 0.00 0.00 0.02 0.01 0.00 0.00 0.02 0.01 0.00 0.02 0.00 0.00 0.00 0.00 0.00 0.00 0.01 0.00 0.00 0.00 0.00 0.00 0.00 0.00 0.00 0.00 0.00 0.00 0.00 0.00 0.00 0.00 0.00 0.00 0.00 0.00 0.00
0.00 0.01 0.03 0.04 0.01 0.00 0.01 0.03 0.03 0.00 0.01 0.03 0.01 0.03 0.01 0.01 0.00 0.02 0.01 0.02 0.03 0.01 0.00 0.00 0.00 0.00 0.01 0.00 0.00 0.00 0.00 0.00 0.00 0.00 0.00 0.00 0.00 0.00 0.00 0.00 0.00 0.00
0.02 0.00 0.13 0.09 0.03 0.03 0.09 0.03 0.01 0.01 0.01 0.03 0.01 0.01 0.00 0.01 0.00 0.00 0.00 0.00 0.00 0.00 0.00 0.02 0.00 0.00 0.00 0.00 0.00 0.00 0.00 0.00 0.00 0.00 0.00 0.00 0.00 0.00 0.00 0.00 0.00 0.00
0.00 0.16 0.31 0.10 0.06 0.06 0.15 0.15 0.09 0.02 0.02 0.02 0.01 0.02 0.01 0.01 0.00 0.00 0.00 0.00 0.00 0.00 0.01 0.00 0.00 0.00 0.00 0.00 0.00 0.00 0.00 0.00 0.01 0.00 0.00 0.00 0.00 0.00 0.00 0.00 0.01 0.03
0.01 0.26 0.51 0.24 0.09 0.24 0.15 0.14 0.09 0.03 0.00 0.02 0.02 0.01 0.01 0.01 0.01 0.01 0.01 0.01 0.00 0.00 0.00 0.00 0.00 0.00 0.01 0.01 0.00 0.00 0.00 0.00 0.00 0.00 0.00 0.00 0.01 0.01 0.02 0.02 0.04 0.03
0.21 0.31 0.42 0.38 0.83 1.10 0.79 0.35 0.06 0.04 0.01 0.01 0.01 0.02 0.04 0.03 0.04 0.03 0.00 0.00 0.02 0.04 0.01 0.01 0.02 0.02 0.01 0.03 0.01 0.00 0.00 0.00 0.00 0.03 0.00 0.01 0.02 0.03 0.03 0.03 0.03 0.01
0.25 0.58 0.33 0.67 0.74 1.95 1.58 0.80 0.09 0.03 0.02 0.06 0.09 0.08 0.05 0.02 0.01 0.01 0.01 0.01 0.01 0.02 0.02 0.03 0.03 0.02 0.10 0.06 0.01 0.02 0.02 0.02 0.03 0.03 0.04 0.05 0.05 0.05 0.04 0.03 0.03 0.01
0.19 0.54 0.49 0.66 0.82 2.03 1.38 1.08 0.34 0.12 0.07 0.03 0.03 0.02 0.03 0.02 0.02 0.02 0.04 0.04 0.04 0.05 0.04 0.04 0.02 0.02 0.02 0.02 0.02 0.03 0.06 0.10 0.06 0.05 0.06 0.05 0.04 0.06 0.06 0.09 0.03 0.10
0.08 0.77 0.62 0.38 1.20 2.82 2.55 0.84 0.24 0.06 0.04 0.05 0.04 0.03 0.08 0.08 0.04 0.05 0.05 0.06 0.06 0.05 0.05 0.12 0.13 0.05 0.04 0.06 0.07 0.12 0.07 0.05 0.07 0.05 0.04 0.03 0.07 0.10 0.12 0.14 0.26 0.08
0.90 0.92 0.56 0.32 0.72 2.26 1.39 0.73 0.56 0.39 0.22 0.21 0.09 0.10 0.21 0.10 0.08 0.08 0.07 0.10 0.13 0.15 0.18 0.13 0.08 0.11 0.09 0.11 0.10 0.08 0.06 0.07 0.04 0.05 0.06 0.07 0.22 0.31 0.32 0.35 0.30 0.17
0.73 0.48 0.23 1.21 2.16 1.78 1.11 0.71 0.39 0.20 0.31 0.31 0.30 0.19 0.10 0.20 0.08 0.14 0.16 0.18 0.21 0.16 0.15 0.18 0.19 0.17 0.12 0.08 0.06 0.07 0.08 0.03 0.07 0.05 0.05 0.14 0.14 0.09 0.15 0.12 0.11 0.51
0.11 0.04 0.70 2.13 1.21 0.99 0.62 0.60 0.77 0.37 0.28 0.34 0.55 0.42 0.19 0.11 0.13 0.22 0.20 0.33 0.27 0.20 0.29 0.37 0.20 0.11 0.12 0.12 0.11 0.12 0.10 0.09 0.11 0.21 0.11 0.07 0.13 0.17 0.09 0.11 0.21 0.27
0.27 0.55 0.95 1.15 1.18 0.75 0.54 0.42 0.27 0.35 0.47 0.42 0.50 0.46 0.38 0.31 0.44 0.30 0.32 0.31 0.31 0.24 0.20 0.12 0.09 0.09 0.46 0.45 0.08 0.02 0.06 0.25 0.17 0.08 0.11 0.07 0.07 0.11 0.12 0.25 0.28 0.33
0.70 0.84 0.86 0.85 1.10 0.58 0.44 0.43 0.61 0.57 0.46 0.40 0.39 0.52 0.87 0.61 0.37 0.38 0.36 0.25 0.18 0.13 0.08 0.09 0.10 0.08 0.05 0.11 0.50 0.10 0.04 0.11 0.11 0.08 0.16 0.11 0.09 0.11 0.34 0.26 0.17 0.14
0.90 0.78 0.69 0.64 0.58 0.48 0.45 0.44 0.62 0.61 0.61 0.47 0.70 1.22 0.63 0.50 0.62 0.33 0.19 0.13 0.22 0.09 0.19 0.06 0.11 0.04 0.02 0.03 0.06 0.12 0.13 0.17 0.14 0.14 0.17 0.22 0.26 0.35 0.35 0.31 0.21 0.18
0.87 0.76 0.51 0.52 0.71 0.76 0.68 0.69 0.94 0.88 0.69 0.86 0.67 0.47 0.36 0.36 0.28 0.22 0.18 0.28 0.31 0.32 0.12 0.13 0.17 0.07 0.06 0.06 0.06 0.07 0.13 0.22 0.18 0.19 0.21 0.20 0.43 0.37 0.20 0.19 0.46 0.17
0.98 0.57 0.60 0.51 0.64 0.79 1.12 1.19 1.13 1.13 0.92 0.58 0.28 0.16 0.08 0.07 0.05 0.04 0.15 0.22 0.13 0.19 0.15 0.12 0.12 0.11 0.08 0.08 0.16 0.10 0.12 0.31 0.22 0.28 0.20 0.24 0.37 0.26 0.18 0.30 0.33 0.46

ECMWFNIL_prec_precacc_036.txt.gz
Total_Precipitation_Accumulation
0.00 0.00 0.00 0.00 0.00 0.00 0.00 0.00 0.00 0.00 0.00 0.00 0.00 0.00 0.00 0.00 0.00 0.00 0.00 0.00 0.00 0.00 0.00 0.00 0.00 0.00 0.01 0.01 0.01 0.01 0.01 0.01 0.00 0.00 0.00 0.00 0.01 0.01 0.01 0.01 0.01 0.00
0.00 0.00 0.00 0.00 0.00 0.00 0.00 0.00 0.00 0.00 0.00 0.00 0.00 0.00 0.01 0.00 0.00 0.00 0.00 0.00 0.00 0.00 0.00 0.00 0.00 0.00 0.00 0.00 0.00 0.01 0.01 0.01 0.01 0.00 0.00 0.00 0.01 0.01 0.01 0.01 0.02 0.01
0.00 0.00 0.00 0.00 0.00 0.00 0.00 0.00 0.00 0.00 0.02 0.01 0.00 0.00 0.00 0.00 0.01 0.00 0.00 0.00 0.00 0.00 0.00 0.00 0.00 0.00 0.00 0.00 0.00 0.01 0.01 0.01 0.00 0.00 0.00 0.00 0.01 0.00 0.00 0.00 0.00 0.01
0.00 0.00 0.00 0.00 0.00 0.00 0.00 0.00 0.00 0.00 0.01 0.00 0.00 0.00 0.00 0.00 0.00 0.00 0.00 0.00 0.00 0.00 0.00 0.00 0.00 0.00 0.00 0.00 0.00 0.00 0.00 0.00 0.00 0.00 0.00 0.01 0.02 0.02 0.01 0.00 0.00 0.00
0.00 0.00 0.00 0.00 0.00 0.00 0.00 0.00 0.00 0.00 0.00 0.00 0.00 0.00 0.00 0.00 0.00 0.00 0.00 0.00 0.00 0.00 0.00 0.00 0.00 0.00 0.00 0.00 0.00 0.00 0.00 0.00 0.00 0.00 0.00 0.00 0.01 0.00 0.00 0.00 0.00 0.00
0.00 0.00 0.00 0.00 0.00 0.00 0.00 0.00 0.00 0.00 0.00 0.00 0.00 0.00 0.00 0.00 0.00 0.00 0.00 0.00 0.00 0.00 0.00 0.00 0.00 0.00 0.00 0.00 0.00 0.00 0.00 0.00 0.00 0.00 0.00 0.00 0.00 0.00 0.00 0.00 0.00 0.00
0.00 0.00 0.00 0.00 0.00 0.00 0.00 0.00 0.00 0.00 0.00 0.00 0.00 0.00 0.00 0.00 0.00 0.00 0.00 0.00 0.01 0.00 0.00 0.00 0.00 0.00 0.00 0.00 0.00 0.01 0.00 0.00 0.00 0.00 0.00 0.00 0.00 0.00 0.00 0.00 0.00 0.00
0.00 0.00 0.00 0.00 0.00 0.00 0.00 0.00 0.00 0.01 0.00 0.00 0.00 0.00 0.00 0.00 0.00 0.00 0.00 0.00 0.00 0.00 0.01 0.03 0.00 0.00 0.00 0.01 0.01 0.00 0.00 0.00 0.00 0.00 0.00 0.00 0.00 0.00 0.00 0.00 0.01 0.00
0.00 0.00 0.01 0.00 0.00 0.00 0.00 0.01 0.01 0.02 0.00 0.00 0.00 0.00 0.01 0.00 0.00 0.00 0.00 0.00 0.00 0.02 0.01 0.00 0.01 0.01 0.00 0.00 0.00 0.00 0.00 0.00 0.00 0.00 0.00 0.00 0.00 0.00 0.00 0.00 0.00 0.00
0.00 0.00 0.00 0.00 0.00 0.00 0.00 0.02 0.01 0.00 0.00 0.02 0.01 0.00 0.02 0.00 0.00 0.00 0.00 0.00 0.00 0.01 0.00 0.00 0.00 0.00 0.00 0.00 0.00 0.00 0.00 0.00 0.00 0.00 0.00 0.00 0.00 0.00 0.00 0.00 0.00 0.00
0.00 0.01 0.03 0.04 0.01 0.00 0.01 0.03 0.03 0.00 0.01 0.03 0.01 0.03 0.01 0.01 0.00 0.02 0.01 0.02 0.03 0.01 0.00 0.00 0.00 0.00 0.01 0.00 0.00 0.00 0.00 0.00 0.00 0.00 0.00 0.00 0.00 0.00 0.00 0.00 0.00 0.00
0.02 0.00 0.13 0.09 0.03 0.03 0.09 0.03 0.01 0.01 0.01 0.03 0.01 0.01 0.00 0.01 0.00 0.00 0.00 0.00 0.00 0.00 0.00 0.02 0.00 0.00 0.00 0.00 0.00 0.00 0.00 0.00 0.00 0.00 0.00 0.00 0.00 0.00 0.00 0.00 0.00 0.00
0.00 0.16 0.31 0.10 0.06 0.06 0.15 0.15 0.09 0.02 0.02 0.02 0.01 0.02 0.01 0.01 0.00 0.00 0.00 0.00 0.00 0.00 0.01 0.00 0.00 0.00 0.00 0.00 0.00 0.00 0.00 0.00 0.01 0.00 0.00 0.00 0.00 0.00 0.00 0.00 0.01 0.03
0.01 0.26 0.51 0.24 0.09 0.24 0.15 0.14 0.09 0.03 0.00 0.02 0.02 0.01 0.01 0.01 0.01 0.01 0.01 0.01 0.00 0.00 0.00 0.00 0.00 0.00 0.01 0.01 0.00 0.00 0.00 0.00 0.00 0.00 0.00 0.00 0.01 0.01 0.02 0.02 0.04 0.03
0.21 0.31 0.42 0.38 0.83 1.10 0.79 0.35 0.06 0.04 0.01 0.01 0.01 0.02 0.04 0.03 0.04 0.03 0.00 0.00 0.02 0.04 0.01 0.01 0.02 0.02 0.01 0.03 0.01 0.00 0.00 0.00 0.00 0.03 0.00 0.01 0.02 0.03 0.03 0.03 0.03 0.01
0.25 0.58 0.33 0.67 0.74 1.95 1.58 0.80 0.09 0.03 0.02 0.06 0.09 0.08 0.05 0.02 0.01 0.01 0.01 0.01 0.01 0.02 0.02 0.03 0.03 0.02 0.10 0.06 0.01 0.02 0.02 0.02 0.03 0.03 0.04 0.05 0.05 0.05 0.04 0.03 0.03 0.01
0.19 0.54 0.49 0.66 0.82 2.03 1.38 1.08 0.34 0.12 0.07 0.03 0.03 0.02 0.03 0.02 0.02 0.02 0.04 0.04 0.04 0.05 0.04 0.04 0.02 0.02 0.02 0.02 0.02 0.03 0.06 0.10 0.06 0.05 0.06 0.05 0.04 0.06 0.06 0.09 0.03 0.10
0.08 0.77 0.62 0.38 1.20 2.82 2.55 0.84 0.24 0.06 0.04 0.05 0.04 0.03 0.08 0.08 0.04 0.05 0.05 0.06 0.06 0.05 0.05 0.12 0.13 0.05 0.04 0.06 0.07 0.12 0.07 0.05 0.07 0.05 0.04 0.03 0.07 0.10 0.12 0.14 0.26 0.08
0.90 0.92 0.56 0.32 0.72 2.26 1.39 0.73 0.56 0.39 0.22 0.21 0.09 0.10 0.21 0.10 0.08 0.08 0.07 0.10 0.13 0.15 0.18 0.13 0.08 0.11 0.09 0.11 0.10 0.08 0.06 0.07 0.04 0.05 0.06 0.07 0.22 0.31 0.32 0.35 0.30 0.17
0.73 0.48 0.23 1.21 2.16 1.78 1.11 0.71 0.39 0.20 0.31 0.31 0.30 0.19 0.10 0.20 0.08 0.14 0.16 0.18 0.21 0.16 0.15 0.18 0.19 0.17 0.12 0.08 0.06 0.07 0.08 0.03 0.07 0.05 0.05 0.14 0.14 0.09 0.15 0.12 0.11 0.51
0.11 0.04 0.70 2.13 1.21 0.99 0.62 0.60 0.77 0.37 0.28 0.34 0.55 0.42 0.19 0.11 0.13 0.22 0.20 0.33 0.27 0.20 0.29 0.37 0.20 0.11 0.12 0.12 0.11 0.12 0.10 0.09 0.11 0.21 0.11 0.07 0.13 0.17 0.09 0.11 0.21 0.27
0.27 0.55 0.95 1.15 1.18 0.75 0.54 0.42 0.27 0.35 0.47 0.42 0.50 0.46 0.38 0.31 0.44 0.30 0.32 0.31 0.31 0.24 0.20 0.12 0.09 0.09 0.46 0.45 0.08 0.02 0.06 0.25 0.17 0.08 0.11 0.07 0.07 0.11 0.12 0.25 0.28 0.33
0.70 0.84 0.86 0.85 1.10 0.58 0.44 0.43 0.61 0.57 0.46 0.40 0.39 0.52 0.87 0.61 0.37 0.38 0.36 0.25 0.18 0.13 0.08 0.09 0.10 0.08 0.05 0.11 0.50 0.10 0.04 0.11 0.11 0.08 0.16 0.11 0.09 0.11 0.34 0.26 0.17 0.14
0.90 0.78 0.69 0.64 0.58 0.48 0.45 0.44 0.62 0.61 0.61 0.47 0.70 1.22 0.63 0.50 0.62 0.33 0.19 0.13 0.22 0.09 0.19 0.06 0.11 0.04 0.02 0.03 0.06 0.12 0.13 0.17 0.14 0.14 0.17 0.22 0.26 0.35 0.35 0.31 0.21 0.18
0.87 0.76 0.51 0.52 0.71 0.76 0.68 0.69 0.94 0.88 0.69 0.86 0.67 0.47 0.36 0.36 0.28 0.22 0.18 0.28 0.31 0.32 0.12 0.13 0.17 0.07 0.06 0.06 0.06 0.07 0.13 0.22 0.18 0.19 0.21 0.20 0.43 0.37 0.20 0.20 0.46 0.17
0.98 0.57 0.60 0.51 0.64 0.79 1.12 1.19 1.13 1.13 0.92 0.58 0.28 0.16 0.08 0.07 0.05 0.04 0.15 0.22 0.13 0.19 0.15 0.12 0.12 0.11 0.08 0.08 0.16 0.10 0.12 0.31 0.22 0.28 0.20 0.24 0.37 0.27 0.18 0.30 0.34 0.47